GFSGBSN_sfc_rhum_009.txt.gz
RH
79 84 85 85 87 88 86 83 82 80 82 83 81 82 81 81 81 80 83 80 84 78 82 78 80 81 93 77 42 23 80 78 43 31 27 25 28 25 20 19 23 14 12 11 13 10 10
81 86 86 87 88 87 86 82 82 82 83 82 84 82 83 82 82 85 86 80 80 79 79 80 80 81 85 41 20 20 41 39 34 32 31 26 22 24 23 17 12 12 13 11 13 14 12
87 87 87 88 91 91 89 84 82 83 83 85 84 83 83 83 83 88 83 83 80 81 80 82 81 80 73 33 27 30 24 29 28 26 24 26 23 23 18 21 13 11 12 13 13 17 16
86 87 87 90 92 92 91 86 83 84 84 86 84 85 84 85 86 85 82 81 81 81 81 81 83 87 46 26 30 23 14 13 15 23 21 14 20 20 18 15 16 17 19 18 15 19 20
86 87 88 90 91 90 90 88 88 84 85 86 86 87 95 96 94 84 83 83 83 82 81 82 94 92 34 27 18 13 12 13 16 16 17 11 17 20 18 18 20 24 23 26 21 18 21
87 88 89 90 90 88 89 88 86 86 86 88 92 95 93 95 96 87 85 85 84 87 85 77 70 62 35 22 18 14 13 15 20 23 18 20 26 24 27 18 18 23 26 44 22 20 24
87 88 89 89 89 86 86 86 86 88 90 95 94 92 91 94 95 93 90 93 66 64 83 29 32 39 32 24 14 14 14 16 20 22 27 28 27 28 28 28 22 24 27 25 28 21 34
88 89 90 89 87 85 89 88 88 95 94 94 92 89 91 94 95 96 97 77 51 52 58 43 42 38 30 22 20 16 18 21 23 28 29 28 33 28 28 31 29 28 30 35 28 26 36
90 90 90 88 84 87 90 90 93 93 93 93 90 88 90 94 95 98 76 51 55 52 57 27 34 30 20 18 21 20 21 26 25 29 29 32 30 24 28 33 34 41 39 36 30 34 38
90 91 90 87 84 89 92 92 92 92 93 92 89 88 94 95 86 77 63 50 58 47 42 26 24 18 20 22 24 18 20 22 28 31 28 30 34 31 33 32 37 43 38 34 30 40 48
90 90 89 86 85 90 92 91 91 92 93 91 89 90 96 87 76 80 54 73 66 50 58 25 25 18 19 24 23 19 22 26 27 29 32 39 39 36 34 36 36 41 38 36 37 40 42
90 89 88 84 88 91 92 90 91 93 93 91 89 94 98 91 96 66 77 68 45 76 55 35 26 26 23 26 27 24 28 28 30 32 32 36 34 34 37 35 35 33 41 48 56 52 65
90 89 87 85 89 91 91 90 91 94 93 91 90 95 86 72 73 81 78 49 67 81 37 31 31 29 30 33 32 33 36 39 41 43 49 38 38 34 36 41 39 40 51 71 68 77 73
89 88 86 87 90 91 90 90 93 94 92 91 94 96 92 74 89 82 59 51 74 46 39 29 30 33 34 35 38 38 40 41 38 44 49 51 58 37 30 40 43 47 51 73 65 81 60
88 87 85 89 91 90 90 91 94 94 92 95 96 94 94 90 88 71 64 86 71 53 29 30 34 38 40 35 35 40 47 42 43 43 49 53 50 37 34 34 41 48 51 47 72 81 75
86 85 88 90 91 90 93 93 94 93 92 94 88 78 70 82 71 67 82 82 66 47 32 30 39 38 39 36 41 46 50 47 48 43 44 46 47 40 31 38 38 36 39 58 71 65 72
86 86 89 90 90 95 98 94 94 93 92 92 72 49 48 78 50 58 80 79 61 31 38 32 34 39 38 38 43 52 55 51 54 48 44 55 45 45 43 46 49 46 49 56 61 75 76
86 90 89 90 92 97 93 93 94 93 94 81 74 50 69 48 46 89 70 61 54 35 34 41 43 41 41 52 60 61 60 60 56 58 48 58 59 76 50 41 43 44 53 52 70 68 90
89 89 88 91 97 95 92 93 94 92 88 85 75 92 81 46 63 88 59 56 43 39 39 43 45 48 51 60 65 66 65 61 51 53 58 52 64 77 64 54 44 47 52 60 65 78 79
89 88 90 96 97 96 93 93 93 91 90 82 76 87 75 81 66 45 55 52 52 44 44 42 44 46 50 62 65 69 68 62 54 51 72 64 68 59 70 60 54 46 47 58 57 79 72
89 89 96 96 96 97 97 91 93 91 89 77 83 67 64 88 83 81 60 57 52 50 45 41 43 47 52 67 70 75 69 62 53 63 70 61 64 71 63 63 54 51 46 56 60 61 67
89 96 98 97 96 97 90 91 93 92 87 75 85 72 74 57 54 66 77 59 48 49 46 50 48 61 55 61 55 69 59 60 58 68 81 73 84 82 77 71 72 59 48 51 52 50 59
91 95 98 97 98 89 90 91 94 92 80 72 84 86 64 89 72 72 77 54 50 50 58 53 57 63 69 70 68 72 72 68 64 68 86 86 93 70 59 87 76 57 57 53 51 59 59
93 94 99 96 91 88 92 92 95 91 87 77 90 82 84 92 76 63 60 57 56 52 61 65 59 64 59 58 55 52 58 76 78 87 72 97 96 90 81 77 54 44 53 53 57 74 75
93 93 92 91 92 92 94 94 94 93 91 76 89 78 78 95 83 70 66 72 70 75 78 76 71 64 59 55 75 68 77 68 80 88 91 79 93 97 77 82 52 39 58 72 63 66 75
93 91 91 91 91 93 95 95 95 94 94 77 95 90 76 90 86 63 72 69 83 83 83 79 75 74 69 91 84 71 64 60 82 88 86 84 86 78 98 63 51 44 61 55 54 74 80
92 91 91 92 93 93 94 95 95 94 94 77 93 92 77 86 80 71 74 72 77 82 89 85 80 78 69 94 94 96 86 65 82 90 94 98 97 86 99 84 73 53 56 56 70 60 84
92 91 91 92 93 94 94 96 96 95 95 80 93 92 76 90 89 87 73 78 79 81 86 79 78 83 92 80 86 94 98 88 85 76 86 89 94 99 97 97 69 56 60 67 67 84 80
91 91 92 94 94 97 98 99 99 97 96 90 86 94 92 84 85 84 83 82 78 62 84 84 69 78 88 91 96 99 98 99 92 85 75 76 70 82 75 76 59 58 65 66 76 84 89

GFSGBSN_sfc_rhum_015.txt.gz
RH
90 88 88 88 84 88 86 87 89 92 83 80 84 80 81 80 80 80 79 86 81 77 76 75 78 77 84 77 49 42 82 77 55 27 22 23 24 24 26 25 20 19 16 12 10 17 17
91 91 90 88 81 81 87 87 89 92 92 80 84 82 82 80 82 81 84 80 84 79 80 79 76 76 87 47 21 48 60 51 35 25 25 22 21 20 21 19 19 17 10 10 12 11 10
91 92 90 87 83 85 88 90 91 92 92 82 82 82 84 82 82 80 80 79 82 83 79 78 75 78 90 44 21 45 36 35 31 25 27 25 21 22 23 20 14 11 11 11 13 10 11
92 91 90 88 87 90 91 91 92 92 92 84 82 84 83 82 86 80 80 80 83 82 77 75 78 83 66 32 33 31 28 23 30 26 22 25 23 22 22 16 16 13 17 14 12 14 15
92 90 89 89 89 90 91 91 92 92 91 85 83 84 87 88 84 81 84 87 84 77 77 80 89 89 50 28 22 18 16 16 27 28 25 22 24 27 15 17 17 20 17 18 15 22 16
92 90 89 90 91 90 91 91 92 91 89 84 83 85 84 86 93 83 82 83 80 80 80 74 78 70 35 19 24 15 14 18 27 28 25 24 22 21 19 15 18 18 18 17 18 22 32
92 91 89 90 90 90 90 90 91 92 88 86 86 85 92 95 94 88 90 86 77 74 94 42 38 33 26 23 20 14 15 19 22 24 28 25 22 21 21 17 14 17 18 18 24 35 49
88 92 90 89 89 90 89 89 90 91 86 86 89 95 94 94 94 87 86 87 46 47 59 58 49 44 37 29 24 15 18 22 29 25 24 25 29 24 27 27 25 25 27 33 36 40 46
86 90 90 89 89 90 89 88 90 91 93 94 95 94 93 96 95 90 88 82 52 50 61 38 47 38 27 27 23 16 20 24 21 25 26 30 25 28 28 30 33 33 30 32 36 44 42
86 88 92 89 89 90 90 89 89 92 95 94 93 94 96 96 94 92 82 58 63 60 44 31 24 21 21 21 26 18 21 22 27 28 34 33 30 29 28 32 30 36 30 38 44 37 38
86 86 93 90 90 91 91 91 89 93 95 93 93 93 97 86 85 76 55 75 64 51 62 28 23 17 22 21 21 22 27 23 29 30 29 36 35 31 33 32 34 36 34 34 31 33 34
84 85 93 90 91 92 92 90 90 92 93 92 94 94 96 90 94 80 71 61 53 72 61 31 25 24 26 27 28 26 27 28 29 35 34 34 29 30 29 35 33 40 38 41 44 40 43
86 84 91 91 91 92 90 89 89 92 93 93 94 95 92 80 75 88 76 52 66 73 39 32 30 27 30 36 34 33 36 40 34 43 46 35 34 30 33 33 34 35 38 50 55 61 51
84 86 90 92 91 91 89 88 91 93 93 94 94 95 91 88 82 84 57 49 57 46 45 30 31 32 34 34 36 35 36 38 38 38 42 38 36 30 30 32 35 40 38 59 60 63 49
83 88 90 93 90 90 88 89 92 93 93 95 97 94 96 90 82 82 54 79 54 50 35 33 32 38 40 35 36 40 42 39 39 38 40 48 41 30 32 31 33 40 39 43 61 64 57
82 88 91 92 90 89 88 90 93 93 95 96 95 94 85 89 86 66 69 60 49 49 39 34 36 40 43 38 41 41 42 44 41 44 39 44 44 36 31 33 36 34 38 46 51 59 54
80 89 92 92 89 88 88 90 93 94 95 95 85 79 67 77 62 58 70 55 60 54 42 33 38 41 41 42 43 45 44 47 48 42 41 38 44 43 38 39 39 40 44 53 48 56 47
83 90 94 94 88 87 88 92 94 95 96 98 76 63 73 62 56 73 61 58 62 49 41 43 38 40 42 52 52 51 50 47 50 51 42 46 56 60 39 37 40 37 42 43 53 50 67
86 92 90 92 87 87 89 94 96 96 91 92 66 90 84 60 69 87 57 54 53 44 44 44 48 48 53 59 58 59 58 55 50 47 51 48 57 64 47 36 37 39 48 49 56 67 69
89 92 90 91 87 88 93 97 96 95 93 82 84 93 84 70 62 51 50 52 51 48 47 45 50 52 58 61 63 67 61 55 58 59 80 59 54 54 53 42 45 46 52 46 45 60 58
91 93 92 87 87 92 98 96 95 94 95 90 78 81 81 91 72 53 45 49 51 53 46 44 48 49 56 66 64 69 60 52 56 71 66 51 57 56 59 58 51 41 45 49 41 45 54
93 93 92 89 91 93 93 94 95 95 94 90 74 74 70 74 70 54 62 58 50 49 53 48 52 57 55 61 52 67 57 52 48 66 62 59 67 63 69 63 60 53 44 44 50 51 45
93 90 92 93 93 94 94 94 96 94 86 82 91 75 61 86 83 67 75 59 52 54 65 57 53 58 62 62 62 66 65 68 62 63 70 66 81 60 56 64 54 59 51 44 47 47 45
92 91 94 95 94 95 96 95 95 93 85 79 86 75 77 85 84 67 67 59 56 54 59 63 58 62 67 64 59 55 64 72 68 72 64 82 72 69 73 73 59 37 46 42 44 45 42
94 94 95 94 96 98 94 94 95 92 87 90 94 73 72 96 74 64 69 74 74 76 77 75 77 68 65 59 76 68 79 74 82 74 65 63 76 82 80 60 46 30 41 56 58 39 46
97 96 96 98 94 93 94 95 96 93 87 92 96 85 74 83 76 56 74 70 82 83 83 86 73 64 62 82 80 80 74 61 58 76 75 69 77 72 78 67 61 42 33 52 44 62 45
98 97 94 93 95 96 96 95 96 93 88 89 96 87 80 82 80 70 72 72 73 78 86 80 72 76 62 83 90 80 65 58 55 75 94 97 94 80 82 80 61 42 45 48 59 52 61
93 93 94 95 97 97 97 96 94 90 86 86 95 93 76 90 90 84 71 75 76 76 83 81 76 81 85 87 91 81 92 76 70 63 85 74 85 86 85 78 65 45 51 66 60 61 60
92 94 96 99 98 97 98 99 93 85 85 90 92 96 86 85 86 86 82 81 78 62 80 85 70 75 77 86 89 96 100 98 85 78 70 70 69 72 62 66 50 48 61 55 58 57 57

GFSGBSN_sfc_rhum_021.txt.gz
RH
86 88 92 92 91 90 88 88 88 89 90 91 91 87 82 79 82 85 87 86 86 84 80 77 75 75 62 43 24 30 78 70 24 20 13 10 11 11 11 9 9 12 10 10 14 14 11
80 86 89 93 92 91 89 89 89 89 90 90 91 89 86 81 82 84 86 85 86 85 79 76 73 79 57 36 10 17 17 18 14 14 10 9 10 8 10 10 12 11 10 9 11 13 19
78 80 86 94 93 92 90 90 88 88 89 90 91 90 87 82 86 83 82 86 86 84 76 74 73 52 48 26 11 16 14 12 11 11 11 10 10 12 12 14 12 10 11 9 10 14 15
81 78 86 87 94 93 92 90 87 88 89 90 90 90 84 87 88 86 83 86 84 78 76 75 74 52 39 14 11 15 15 15 13 12 12 13 13 14 15 13 11 11 12 13 10 13 14
79 82 81 87 94 94 92 89 88 89 90 90 90 88 87 87 87 87 88 82 76 76 75 74 64 54 28 26 12 10 12 13 15 15 14 14 16 17 16 19 13 13 13 13 12 10 13
78 78 78 86 87 95 92 89 89 90 90 90 90 87 86 87 89 89 87 79 79 80 65 47 42 54 30 13 11 10 10 12 16 18 20 18 18 20 17 15 17 14 11 9 11 12 12
73 78 80 82 87 93 92 90 89 91 90 89 89 86 85 89 91 92 79 53 48 51 46 30 22 20 12 11 10 10 9 13 16 18 19 20 20 21 15 14 11 10 10 8 9 11 10
74 76 78 80 84 88 93 90 90 91 90 89 89 86 87 91 92 90 70 37 30 38 38 27 20 17 15 14 13 9 8 14 17 19 16 19 20 14 11 11 10 10 10 13 12 12 15
74 77 78 79 79 83 93 91 91 92 90 90 88 87 90 93 92 80 50 35 28 32 41 22 18 17 14 15 12 10 8 11 15 19 18 22 19 17 14 12 12 12 12 16 14 15 14
75 76 79 81 81 82 87 92 91 92 90 90 90 93 93 93 80 43 42 29 28 34 39 21 20 16 15 14 13 9 8 12 14 17 16 36 19 17 13 14 13 17 16 14 16 18 18
78 74 79 82 83 84 87 94 92 92 90 89 93 93 96 85 58 40 37 35 33 52 53 15 14 11 11 12 10 13 11 12 15 17 17 19 18 15 16 18 17 28 18 18 16 17 20
80 74 75 80 82 86 85 95 94 92 90 90 94 93 96 82 62 44 38 49 51 70 44 18 13 15 16 13 11 11 11 11 13 14 16 39 16 16 17 19 17 18 20 20 17 15 27
81 78 76 79 81 86 85 93 94 92 91 92 94 94 87 55 43 45 54 53 58 55 17 16 15 14 14 14 13 14 15 14 15 22 22 19 17 18 17 20 19 16 20 29 30 34 33
84 81 78 80 82 86 86 93 94 92 91 93 94 95 90 52 42 59 61 52 56 22 18 12 12 13 15 13 13 13 14 14 12 17 20 22 29 18 17 19 18 20 18 29 31 31 25
81 85 80 79 82 84 87 92 95 92 92 94 95 88 76 65 65 63 54 74 42 16 14 15 14 17 17 15 15 14 15 13 13 15 21 20 23 18 18 18 16 19 25 19 29 33 36
74 82 82 80 83 84 87 92 95 92 93 94 64 78 55 56 67 66 55 52 26 18 16 14 18 16 21 18 17 15 18 16 20 21 20 18 24 19 22 20 21 22 18 28 24 36 35
74 79 84 79 82 84 88 91 95 92 93 91 58 56 39 54 60 56 56 39 22 20 19 18 16 16 17 18 16 17 16 20 20 22 20 16 20 27 25 24 18 25 23 22 22 32 36
74 79 85 77 78 84 88 91 96 93 92 85 61 56 60 62 48 47 46 29 26 22 26 21 21 16 18 18 20 18 16 16 19 20 21 19 21 36 25 22 21 21 22 23 38 31 35
74 76 83 79 77 80 86 91 96 93 88 58 58 58 72 56 63 77 36 26 21 24 24 24 20 18 17 19 23 19 19 35 31 27 22 26 26 39 31 27 23 23 20 20 21 37 32
76 76 84 79 76 80 85 91 96 93 85 55 45 64 72 62 38 44 39 28 28 24 22 20 18 21 25 26 25 29 29 35 35 28 64 43 26 30 37 27 22 30 22 20 25 40 34
78 90 84 82 83 81 85 92 96 92 84 60 39 42 44 76 52 44 32 28 25 28 25 24 27 23 24 30 30 32 30 37 37 60 35 33 38 28 24 25 23 21 19 21 21 22 34
85 82 82 83 82 84 89 93 96 92 84 66 42 36 35 44 43 38 40 30 23 23 26 30 26 21 21 28 28 28 30 32 33 38 36 32 41 41 46 28 28 28 21 17 16 18 16
81 83 84 84 84 83 85 93 95 91 82 57 52 36 36 59 47 40 38 28 23 26 38 24 22 25 29 32 34 32 30 28 27 37 41 42 56 47 35 33 35 62 40 24 17 16 18
79 82 83 84 84 88 91 89 95 87 84 42 47 41 52 63 47 38 27 25 22 27 34 31 26 30 42 31 32 32 31 31 32 37 34 60 50 51 52 69 80 17 17 15 19 16 13
79 80 84 84 86 89 91 91 92 90 88 58 48 43 37 99 39 30 26 24 23 32 36 38 43 36 34 33 47 55 61 68 49 34 31 32 47 59 89 39 26 18 14 20 23 20 15
81 85 84 86 90 92 91 96 91 90 89 89 71 50 36 58 49 24 25 24 47 48 55 58 44 39 40 52 62 52 50 39 50 47 36 37 51 51 56 86 88 33 24 26 25 29 19
86 84 87 91 93 93 93 96 93 92 89 91 65 68 30 32 26 27 29 30 28 39 46 58 57 55 44 73 99 64 51 34 44 55 88 69 76 80 64 82 47 21 22 28 37 41 29
86 88 93 93 97 90 92 96 95 92 92 92 62 61 33 31 39 38 26 30 28 32 60 52 52 56 63 78 89 62 80 52 45 32 53 54 67 84 68 96 78 21 28 40 41 30 27
92 94 95 96 97 96 96 95 94 93 96 92 77 53 46 40 58 51 56 51 41 28 34 50 35 47 47 56 75 80 96 96 55 62 32 50 42 50 39 43 29 24 25 23 28 34 33

GFSGBSN_sfc_rhum_024.txt.gz
RH
78 82 86 88 94 92 90 89 88 88 88 89 90 90 86 82 79 82 87 86 87 84 80 79 74 76 66 45 28 29 77 64 22 19 18 12 10 10 13 10 9 10 10 9 15 17 36
77 78 81 85 88 94 91 90 90 89 88 90 90 90 90 85 82 79 85 86 87 86 82 77 74 77 63 36 11 18 24 26 13 15 14 9 10 9 10 10 9 10 12 10 14 18 14
74 78 81 82 88 90 93 92 91 90 89 89 89 90 90 87 84 79 82 83 86 85 80 75 74 59 45 27 12 14 12 11 11 14 11 9 9 11 11 14 11 12 13 11 11 15 15
76 78 81 83 89 89 95 94 92 90 89 89 89 89 90 86 82 83 82 81 86 80 77 75 75 57 42 15 12 12 13 13 11 11 11 12 13 15 16 15 12 13 14 18 11 15 18
73 75 80 81 84 89 92 95 93 90 88 89 89 89 89 87 82 84 84 86 82 78 77 75 71 54 32 25 14 10 11 14 12 14 14 12 15 19 17 21 18 20 21 17 13 13 17
73 75 78 80 82 88 89 95 94 91 89 89 89 89 88 87 84 87 89 84 81 78 70 46 39 46 32 17 9 9 9 11 16 17 18 18 19 20 20 18 26 23 18 15 14 10 14
75 74 74 79 80 83 87 91 94 92 91 89 89 89 87 86 87 90 84 62 59 62 50 29 23 22 12 10 9 11 9 13 15 19 24 19 23 22 26 21 15 15 16 13 10 10 12
79 76 74 74 79 80 86 86 94 93 91 89 89 89 86 87 89 92 73 50 31 38 46 30 16 19 14 13 14 10 8 16 20 25 28 19 26 19 17 16 15 13 15 12 10 10 11
76 79 76 75 77 78 80 83 92 94 92 90 89 88 85 89 93 83 58 39 25 31 43 22 18 15 15 12 13 11 9 12 20 21 24 29 32 28 17 14 14 14 16 19 13 10 8
76 79 80 76 78 79 79 82 85 95 93 91 90 89 92 94 87 52 48 34 33 40 49 23 19 16 13 13 14 8 8 19 23 21 42 38 24 26 16 17 12 21 20 18 20 17 19
75 77 80 80 78 77 82 86 86 94 94 91 91 91 94 89 68 41 39 28 37 54 68 18 16 10 12 14 10 11 8 14 19 20 28 42 19 17 18 24 20 30 21 22 16 16 32
73 76 76 80 80 80 84 88 88 95 94 92 91 94 95 89 71 55 44 50 54 75 61 19 13 15 14 12 10 9 12 10 18 23 16 19 16 21 27 18 18 20 22 20 16 18 60
68 78 76 77 80 78 83 87 88 94 95 92 92 94 88 52 50 43 52 62 64 61 16 18 16 14 14 14 12 11 15 15 16 24 24 22 16 14 20 16 15 14 18 34 59 67 55
72 79 76 75 78 78 79 85 88 94 96 93 93 94 90 57 47 56 67 79 62 27 23 10 12 13 16 12 13 12 16 16 12 13 17 23 42 16 14 16 43 38 17 42 83 89 38
72 77 79 83 82 79 81 84 88 95 96 94 94 86 79 71 70 67 79 92 49 26 16 15 12 16 16 12 12 14 15 14 12 12 37 50 37 27 16 14 15 18 24 18 38 44 46
72 78 84 79 89 80 80 84 88 95 95 94 71 76 67 66 69 74 89 66 36 20 15 13 16 14 18 15 16 15 15 13 14 17 32 73 83 38 19 16 17 19 15 32 29 50 46
75 81 76 78 85 81 80 85 88 95 95 88 62 66 50 61 70 75 78 56 35 19 15 17 14 15 16 18 14 16 14 12 18 18 18 20 36 26 23 22 16 24 24 20 19 38 63
80 81 78 77 85 86 81 85 89 95 95 90 64 65 58 67 61 48 62 40 34 24 16 20 18 14 16 17 18 16 16 15 14 15 22 18 23 49 22 17 17 19 25 21 65 46 57
78 75 74 76 81 88 82 82 88 95 94 81 59 60 70 63 58 73 50 38 28 25 21 24 22 18 14 18 21 18 17 31 27 23 26 24 30 48 29 23 21 23 19 17 24 52 57
75 75 75 77 77 86 81 79 88 94 93 74 50 77 99 87 37 47 53 39 32 24 19 20 20 17 18 19 17 21 22 33 32 27 60 44 27 30 48 28 25 32 24 18 22 68 61
75 77 78 78 76 81 80 78 82 93 93 90 58 58 63 94 69 48 45 35 32 28 20 20 22 17 23 29 23 27 23 37 34 54 34 31 38 29 22 20 23 26 22 19 20 25 41
76 79 80 81 81 84 78 78 82 92 94 97 59 48 51 50 53 52 55 44 30 22 25 27 27 20 22 28 24 28 24 35 35 39 34 31 49 49 53 29 26 29 23 21 18 16 17
74 82 79 80 83 81 77 76 85 93 96 88 56 50 48 59 54 55 54 40 31 26 25 20 23 24 26 27 28 33 34 31 27 40 43 46 72 69 62 34 39 57 44 26 20 18 19
79 78 81 90 82 80 78 81 89 94 96 61 55 47 68 66 51 48 42 36 27 25 34 25 24 30 36 29 32 32 30 31 33 37 32 69 68 74 78 76 73 22 16 15 18 16 13
81 80 79 82 84 82 83 86 88 93 96 75 76 88 78 94 47 39 38 32 26 25 31 30 40 36 34 36 56 61 79 72 51 31 31 37 67 79 97 59 35 23 17 20 22 23 18
84 84 83 84 84 84 83 84 87 90 90 86 90 97 94 71 58 32 32 31 40 54 54 53 40 38 38 63 82 65 67 45 50 45 29 35 64 79 73 90 86 39 23 21 21 43 23
80 81 82 85 85 86 89 89 92 91 89 89 88 91 99 70 39 36 34 38 31 52 56 56 55 56 48 92 100 80 69 32 60 69 91 81 85 90 78 94 69 23 22 24 50 57 32
80 83 85 86 86 86 88 90 91 89 88 95 92 89 97 89 38 34 26 31 39 45 70 57 56 55 77 87 95 78 92 65 56 35 62 69 84 95 86 100 89 21 26 50 49 41 35
84 86 86 87 88 86 90 90 90 93 92 89 96 82 85 91 61 58 55 47 40 32 56 58 46 51 58 64 81 88 99 97 73 75 27 58 53 70 57 67 36 25 30 26 31 36 36

GFSGBSN_sfc_rhum_027.txt.gz
RH
75 77 82 84 85 88 93 92 91 89 88 88 89 90 90 86 85 86 80 80 82 88 87 83 81 78 83 71 53 46 72 70 30 23 22 23 26 18 17 16 15 15 13 12 30 39 54
76 78 79 81 83 85 87 93 93 91 89 88 89 90 90 90 89 88 84 81 86 88 88 86 79 81 90 58 28 49 36 33 20 23 24 23 16 13 15 16 20 13 13 16 25 40 42
75 78 78 81 86 86 87 90 95 93 91 89 89 89 90 90 89 88 86 83 84 89 89 83 79 70 65 49 23 26 27 24 17 18 21 18 15 22 22 24 20 18 18 17 20 25 36
76 77 78 80 86 89 89 89 95 94 92 90 89 89 89 90 89 87 87 84 87 89 86 82 79 78 75 29 30 23 18 16 15 17 17 15 20 24 26 22 22 20 22 26 16 22 27
77 76 76 78 83 86 89 89 93 95 93 91 89 88 89 90 88 87 88 89 90 88 85 82 88 85 65 32 23 17 17 19 18 18 22 14 21 30 27 32 35 28 29 25 20 18 22
74 76 75 76 78 84 85 89 90 95 95 91 89 88 89 89 88 88 90 91 86 86 78 63 57 67 46 29 18 15 14 15 21 27 28 29 28 35 32 35 37 25 24 25 23 22 23
73 75 77 78 78 82 83 83 90 94 95 93 89 89 89 87 87 87 89 92 86 88 75 58 40 36 20 17 13 16 14 18 23 30 43 34 37 41 35 29 26 24 24 22 17 15 24
74 75 78 78 76 74 78 81 89 92 96 94 90 89 88 87 88 85 93 88 52 53 67 48 37 30 19 20 20 15 14 22 29 40 37 38 39 29 27 22 28 25 24 22 16 15 19
78 76 76 80 78 76 77 79 85 88 96 94 92 89 88 87 90 94 93 70 42 50 72 41 34 33 19 19 22 19 14 20 28 34 35 45 38 28 23 30 32 29 35 28 23 16 15
75 77 77 77 81 78 76 79 82 86 94 95 94 90 88 93 92 83 85 58 57 59 89 39 32 24 17 19 24 14 12 24 32 36 50 48 31 28 29 33 22 25 24 27 22 28 26
75 75 76 78 80 81 79 81 84 87 91 96 94 91 93 85 93 87 57 58 51 71 96 29 24 16 17 22 22 15 17 26 28 36 38 44 39 34 35 33 24 30 27 28 31 32 38
72 73 77 79 80 81 81 81 85 89 91 96 94 92 95 94 96 82 66 61 76 91 91 31 22 21 22 21 19 15 15 19 24 34 35 34 25 32 30 25 22 24 29 33 37 40 62
75 73 74 78 79 80 80 81 84 89 91 96 95 93 94 70 78 66 70 85 97 97 30 25 24 22 23 22 19 16 21 24 33 39 41 24 22 28 27 30 29 31 37 56 63 80 75
77 74 72 74 76 78 77 83 84 88 91 96 95 95 92 72 73 77 92 96 99 45 37 21 21 22 23 20 20 19 22 25 23 25 33 38 48 37 31 30 33 30 38 69 78 86 67
77 80 75 72 72 78 79 80 82 88 92 97 96 95 92 82 79 84 98 97 79 46 24 28 18 24 24 19 18 21 25 25 21 20 37 55 49 40 34 29 28 30 38 35 68 72 80
75 82 74 74 75 78 79 74 81 86 92 97 96 94 85 76 85 85 99 84 64 35 25 24 30 23 27 22 22 22 24 20 21 30 45 64 58 51 46 33 26 28 28 46 56 59 62
75 76 75 74 74 76 83 79 80 85 93 94 95 94 68 71 87 97 89 76 58 36 28 30 26 25 23 26 22 27 24 18 20 38 44 55 59 58 45 44 33 34 35 33 35 62 70
76 75 75 74 76 77 87 81 82 84 93 98 95 93 71 74 97 89 87 64 55 38 36 32 34 33 27 28 29 24 25 37 25 27 33 54 57 75 43 27 23 26 35 47 70 47 77
75 75 76 75 76 84 87 90 81 84 92 95 94 83 77 62 75 88 59 59 53 46 42 34 38 36 33 32 43 28 48 45 40 38 38 44 45 69 44 36 33 35 29 28 46 70 62
74 76 74 76 80 88 86 87 84 82 88 93 92 93 98 89 47 58 58 56 62 45 42 32 31 34 35 32 26 38 53 48 45 47 62 50 42 49 61 44 37 45 42 37 38 76 71
75 74 75 79 81 84 83 84 88 79 90 96 94 72 74 94 91 57 53 52 58 56 38 32 34 34 36 37 40 36 52 51 49 59 47 45 49 48 45 42 36 34 37 32 31 41 56
74 74 76 84 79 79 83 85 91 80 91 99 91 64 85 84 72 73 57 59 53 43 38 36 38 32 33 38 40 40 45 51 50 55 48 44 67 64 65 40 36 41 36 33 32 31 31
75 78 80 79 78 78 84 86 91 81 90 97 77 77 60 85 76 73 57 53 52 42 40 28 37 40 41 44 43 51 47 46 47 55 57 59 75 75 71 50 44 52 37 35 36 34 33
79 80 79 80 80 80 79 86 89 81 87 95 72 80 86 84 75 61 47 46 48 44 49 34 35 43 51 48 52 53 50 50 50 52 56 72 72 83 84 75 52 37 26 22 30 28 28
79 80 76 80 84 82 82 87 84 81 86 93 87 94 96 100 64 52 47 49 49 44 46 47 54 46 50 58 81 74 84 58 56 44 59 66 80 88 77 83 52 35 34 40 36 39 34
79 78 80 80 83 82 82 85 80 81 86 96 87 94 100 98 72 40 43 48 60 68 83 76 66 75 56 93 86 76 85 62 70 52 55 52 74 77 88 84 74 58 34 31 31 66 44
76 81 82 84 88 85 85 82 86 87 93 92 97 90 99 99 65 52 47 54 51 74 90 85 78 73 72 100 100 84 78 52 77 79 80 89 87 84 96 93 79 49 32 37 48 60 48
81 85 85 89 87 86 82 83 86 84 86 95 94 88 98 98 85 60 40 51 61 71 85 80 86 83 95 92 92 91 97 77 77 67 77 81 94 96 97 99 85 37 37 43 65 52 46
78 82 81 83 82 83 84 86 85 85 89 89 96 77 91 99 96 83 69 76 54 58 75 78 71 77 83 91 98 99 100 98 80 82 54 77 79 86 76 84 61 40 39 43 43 45 52

GFSGBSN_sfc_rhum_030.txt.gz
RH
75 74 78 82 84 84 84 88 95 93 92 90 89 89 89 88 87 90 90 88 82 83 86 85 85 81 88 76 59 54 76 73 39 27 26 26 32 30 22 18 18 19 15 18 41 44 46
77 80 79 81 82 82 80 86 89 95 93 91 90 89 89 90 90 90 90 89 88 86 88 87 83 81 90 56 35 50 40 32 26 26 28 27 29 23 19 21 23 21 17 33 44 47 46
76 77 81 82 84 85 86 87 87 94 95 93 91 90 89 90 90 90 89 89 88 88 89 86 82 73 80 40 32 48 31 27 22 22 23 22 20 27 29 24 23 25 21 27 47 48 49
78 79 78 81 83 87 89 91 89 91 96 94 92 90 90 90 90 90 89 89 90 89 88 85 80 86 76 38 42 33 28 20 19 21 23 20 21 25 30 27 26 23 25 27 38 42 39
76 78 79 79 81 86 88 87 90 89 94 95 93 91 90 89 90 89 90 90 91 90 88 87 91 91 72 39 33 28 23 20 19 20 21 16 24 32 28 35 36 30 30 32 30 26 29
73 76 77 79 79 81 85 87 89 89 91 95 94 92 90 89 89 89 90 89 89 90 80 69 65 70 48 31 27 20 20 20 23 27 28 29 34 36 37 38 38 35 33 30 26 22 26
76 76 75 73 78 78 79 84 87 91 90 94 95 92 89 89 87 88 92 92 78 84 85 50 37 41 27 24 21 18 17 20 27 31 43 42 39 43 36 33 28 28 28 32 25 17 28
79 78 77 76 77 79 78 79 84 89 92 93 94 93 89 88 88 88 94 89 65 56 69 54 48 43 33 29 27 20 18 24 34 39 47 40 43 35 27 28 32 34 34 34 26 21 27
76 78 77 76 76 74 80 77 78 88 91 94 95 93 89 87 90 94 96 82 55 51 75 57 50 47 40 26 27 23 18 25 34 38 41 43 35 32 29 32 34 35 38 35 32 22 18
76 78 78 76 76 77 81 79 79 85 89 90 96 94 91 91 86 87 92 69 71 61 88 57 44 38 22 20 28 19 17 23 33 40 45 42 37 32 35 34 34 37 29 31 29 33 28
80 77 78 80 81 78 79 82 80 84 88 88 95 95 93 82 92 87 66 64 67 75 73 36 41 23 21 25 24 20 17 26 32 39 39 37 39 35 41 33 32 37 30 31 35 38 43
85 79 77 77 78 78 79 82 81 84 87 89 95 96 94 93 98 89 74 72 84 91 86 44 27 28 27 27 25 21 23 24 26 40 42 35 35 31 33 29 30 28 33 38 48 50 61
78 87 78 73 76 78 80 80 82 83 87 90 95 96 89 78 77 85 78 86 94 93 40 36 31 27 28 30 28 23 24 31 34 42 50 37 33 28 30 33 34 34 38 56 57 75 66
74 84 82 76 75 77 80 80 78 81 87 90 96 96 90 74 84 85 93 95 93 58 56 30 28 28 31 27 27 24 26 28 29 32 42 42 50 40 37 32 40 36 38 64 61 77 58
69 83 80 81 74 75 80 82 79 77 85 91 97 99 98 86 87 78 98 98 78 67 34 32 28 32 33 25 24 26 30 28 24 26 34 54 47 45 42 34 34 36 41 39 69 79 80
72 80 85 84 78 72 73 78 82 77 83 90 97 99 91 83 80 79 99 79 69 52 38 34 32 30 33 27 28 27 30 27 26 24 39 50 50 46 42 33 34 32 28 44 62 65 68
73 79 82 85 83 80 75 73 75 80 81 87 97 96 77 78 87 91 94 76 59 44 48 44 41 34 29 30 27 31 25 22 27 46 42 56 44 51 45 46 38 38 38 38 43 61 63
74 79 81 80 78 78 76 78 77 81 80 89 95 95 82 79 87 91 84 64 60 49 48 51 44 42 32 32 32 29 29 23 32 43 39 50 58 79 42 33 39 36 38 47 68 45 82
75 77 79 78 82 78 75 75 78 80 78 89 95 89 85 71 86 87 70 62 57 50 50 51 45 38 36 40 40 42 47 49 49 38 41 46 54 69 48 34 35 37 33 38 55 70 65
76 78 79 80 80 78 75 76 79 77 78 90 94 96 96 88 61 56 72 74 70 49 53 52 51 46 43 46 45 48 52 51 56 48 66 48 47 48 58 39 40 48 46 44 48 77 68
76 78 79 80 79 77 77 76 83 87 77 93 95 77 77 94 89 57 57 60 66 56 52 48 48 50 49 46 51 44 55 55 52 59 48 43 48 47 43 45 46 42 41 40 40 46 56
76 77 78 79 78 77 77 79 77 89 78 98 94 79 79 88 70 74 60 57 52 44 47 43 52 47 45 39 39 49 53 55 48 55 48 51 59 70 66 49 42 43 37 39 38 39 44
77 77 77 77 75 78 81 82 83 87 94 97 91 82 76 82 77 82 66 54 44 42 50 39 43 44 52 39 44 44 47 50 49 52 61 61 74 73 68 54 44 59 44 35 37 39 37
78 76 77 77 77 80 78 86 84 85 93 93 90 93 90 87 81 79 60 48 47 46 46 43 37 49 49 51 51 47 49 57 62 72 60 71 73 82 81 68 63 45 34 34 41 39 36
77 77 77 76 79 83 83 86 87 87 90 95 98 95 97 97 75 75 63 51 45 46 57 43 54 44 51 60 73 67 81 65 58 63 67 67 86 90 74 76 56 37 35 35 40 50 44
78 77 77 79 80 81 80 83 86 87 89 93 96 98 99 100 83 63 63 49 55 69 59 71 70 71 70 94 82 74 76 64 71 56 56 72 76 78 94 77 66 53 41 35 39 71 46
78 79 80 79 79 80 80 83 85 84 88 90 96 96 97 98 84 56 65 55 46 80 69 85 73 73 77 99 94 84 83 58 75 73 75 87 90 82 97 84 72 50 40 38 42 49 49
81 81 80 81 80 82 81 83 86 87 84 87 99 98 96 97 91 91 49 48 58 64 79 83 85 84 98 90 92 92 87 81 82 71 75 71 89 96 96 93 70 50 40 44 53 63 51
82 82 84 85 85 85 83 85 88 85 83 81 98 94 91 98 96 86 90 86 37 55 81 86 68 75 86 92 98 97 92 95 81 90 68 64 72 81 75 78 58 47 50 56 53 58 66

GFSGBSN_sfc_rhum_033.txt.gz
RH
76 76 79 80 82 86 79 84 88 94 95 93 90 89 88 88 89 91 91 91 90 85 84 86 83 84 88 61 43 47 78 78 62 34 27 27 34 34 31 21 22 21 18 17 27 50 51
71 79 80 81 82 81 75 81 87 87 95 95 92 90 89 89 90 91 91 91 90 89 86 87 85 83 88 33 34 50 46 45 33 29 27 26 29 27 28 25 29 25 26 47 50 49 46
73 77 80 81 83 84 83 85 89 88 89 97 94 92 90 90 90 90 90 90 90 90 88 87 84 78 85 27 39 45 34 33 26 25 27 28 27 30 31 26 28 27 32 45 51 54 50
75 78 78 81 82 84 86 88 89 91 89 94 96 94 92 90 90 90 90 90 90 90 88 87 82 88 77 37 49 41 36 32 24 23 24 22 25 29 33 26 28 25 26 38 48 52 43
76 78 79 78 82 83 84 88 89 87 90 91 96 96 93 93 91 90 90 90 90 89 88 88 92 91 64 42 41 35 31 28 23 22 23 17 27 34 30 37 35 32 31 33 45 39 44
73 71 71 79 78 82 82 82 87 88 90 90 94 96 94 92 90 89 90 90 89 89 84 72 69 60 40 30 30 25 30 26 25 31 31 30 37 39 40 36 42 40 36 43 32 24 40
76 74 77 73 78 74 80 80 82 89 89 90 92 96 94 91 89 88 90 88 74 81 81 47 32 33 31 28 25 26 22 24 32 32 44 44 41 46 41 38 36 36 39 42 33 24 29
76 75 74 76 76 71 69 76 80 87 89 91 92 95 94 90 88 89 93 82 58 63 68 57 53 46 38 35 38 25 20 25 35 38 49 42 48 35 34 30 34 35 38 33 32 24 26
81 84 76 74 76 76 71 73 80 83 87 90 92 95 95 89 88 94 94 72 54 61 62 54 56 55 47 40 42 30 21 28 35 40 42 44 35 36 32 32 35 39 41 39 35 28 28
76 79 86 77 75 77 76 75 75 82 85 88 90 96 96 90 86 85 89 70 70 65 79 59 60 49 40 29 30 23 20 25 39 38 46 43 39 37 40 39 34 42 35 37 34 35 26
72 73 79 86 76 75 78 77 76 82 83 88 87 93 96 85 79 90 70 67 67 76 60 28 50 31 25 25 26 25 21 27 33 42 40 38 45 41 41 32 34 37 41 35 38 42 44
72 71 77 84 84 76 76 78 79 78 83 86 88 92 96 91 96 83 73 78 84 78 62 45 38 36 30 28 29 22 25 26 30 41 46 36 37 34 32 34 34 34 38 42 53 52 61
73 72 73 79 84 82 76 83 81 80 83 82 89 93 96 81 82 86 82 89 93 92 35 42 38 34 32 35 32 29 27 34 40 47 48 40 36 35 36 37 35 35 40 52 53 72 64
76 73 72 74 84 84 77 80 80 78 77 81 87 96 95 79 88 88 91 93 94 65 62 45 34 36 32 31 33 29 29 31 32 37 50 47 46 39 41 36 40 46 39 60 58 72 51
78 76 74 71 77 85 80 76 77 80 79 84 88 98 98 90 83 88 97 99 79 64 47 32 33 40 40 32 30 31 32 30 27 32 38 53 46 47 45 38 34 40 45 42 69 83 78
80 77 76 74 73 84 85 76 79 83 80 84 98 95 89 81 78 84 97 78 68 56 52 54 39 37 43 35 33 33 34 28 28 29 32 43 45 45 43 42 36 38 35 46 62 61 68
83 79 77 75 74 82 84 78 81 83 83 83 96 97 77 80 82 92 92 77 62 45 50 60 52 40 36 36 32 35 30 26 29 44 34 55 41 45 53 46 38 41 41 44 46 64 63
84 81 78 76 72 81 82 78 78 78 80 90 92 96 92 80 99 85 82 68 60 48 54 59 59 54 41 37 36 34 32 24 28 47 40 51 54 73 44 41 39 40 44 45 69 50 84
87 83 79 77 74 82 84 79 75 72 78 94 92 89 91 78 90 90 72 63 56 48 55 58 58 54 46 41 38 39 37 46 48 40 48 51 57 71 50 41 38 45 42 49 58 71 67
86 85 80 76 80 87 85 81 75 75 77 97 97 97 96 94 68 70 73 73 74 56 55 58 61 60 57 46 47 49 51 53 54 48 66 50 51 52 61 46 42 50 46 46 52 79 68
89 87 83 77 83 88 86 80 76 77 73 95 96 82 74 96 90 77 62 62 70 64 58 52 60 62 64 63 53 56 60 57 54 58 56 45 49 47 44 38 48 42 42 48 47 51 58
90 87 83 81 81 82 80 79 75 75 78 98 94 93 80 87 69 75 70 66 66 59 63 59 49 50 46 61 48 48 54 58 50 54 53 53 59 65 66 51 47 46 40 40 44 43 48
91 88 85 83 82 84 79 76 75 75 79 98 92 87 94 75 73 78 69 64 57 56 56 45 48 53 64 54 47 42 51 49 44 50 59 59 72 73 64 60 51 64 49 41 38 41 40
91 89 86 82 80 80 79 76 78 78 78 94 86 92 99 88 80 70 61 58 55 52 53 44 38 54 51 53 52 51 55 62 70 75 59 70 71 81 80 67 69 48 41 37 43 46 42
89 88 86 81 81 80 76 76 78 79 77 96 95 93 97 100 69 69 69 62 52 47 50 41 48 36 57 62 73 72 82 74 64 68 76 67 82 86 75 75 57 43 41 42 43 47 46
89 88 84 81 79 76 76 79 80 79 75 93 96 89 96 99 88 59 66 60 65 60 61 66 47 72 70 88 85 78 84 74 75 69 62 66 77 79 89 70 69 55 43 38 42 68 47
89 87 82 77 76 76 79 82 84 81 77 92 95 91 92 97 91 72 76 70 54 61 65 77 80 81 75 97 92 84 80 62 73 75 73 88 92 85 97 83 69 47 43 35 49 52 55
86 84 79 78 78 80 79 81 80 84 87 92 94 95 94 94 92 87 91 71 56 54 69 74 81 87 96 87 88 89 90 81 78 68 69 74 89 95 94 83 65 50 48 41 50 66 58
83 80 78 79 79 83 84 84 84 84 87 89 98 96 94 97 95 86 83 78 82 48 65 92 64 80 83 92 99 96 93 95 84 88 72 63 70 80 72 73 56 56 46 55 60 57 59

GFSGBSN_sfc_rhum_036.txt.gz
RH
74 72 79 80 81 81 77 80 84 89 89 95 95 92 90 89 89 90 91 91 91 87 86 85 83 84 86 43 32 61 81 77 62 37 28 29 36 36 34 27 26 26 20 22 28 52 55
77 77 74 80 81 78 76 79 83 89 90 89 96 95 92 90 89 90 91 91 91 90 87 86 86 84 84 23 35 50 59 41 39 36 28 29 31 30 33 33 32 28 31 46 54 54 50
73 77 80 72 76 82 81 83 86 86 88 89 90 97 94 91 90 90 91 91 90 90 88 87 85 82 84 26 42 44 37 37 32 30 32 30 30 32 34 32 29 32 43 44 54 52 51
71 75 75 82 73 71 83 82 84 87 88 90 90 93 97 94 91 90 91 91 91 90 88 88 83 90 71 36 50 50 42 37 30 27 27 24 28 31 37 30 30 26 28 36 48 52 52
77 67 76 76 81 82 72 82 85 86 87 88 91 93 97 96 94 91 91 90 90 89 88 88 94 92 48 38 37 34 35 32 26 26 26 19 30 37 34 38 34 35 34 36 51 48 47
74 81 66 74 77 80 82 69 83 85 87 88 89 91 95 97 94 91 90 90 88 87 86 77 71 62 30 32 32 30 40 29 32 35 34 34 39 40 43 36 41 44 42 56 41 33 52
72 76 82 73 73 79 76 80 71 84 85 88 88 90 93 97 93 88 90 80 64 76 81 51 35 25 27 31 35 28 29 28 33 34 45 46 43 47 41 37 33 38 43 43 39 29 33
73 75 78 82 74 74 74 76 79 81 83 86 90 92 93 96 93 89 92 76 56 67 74 57 55 46 38 43 49 34 24 27 36 42 50 43 48 37 36 39 37 39 40 39 34 29 32
75 73 72 74 78 73 74 74 78 82 83 81 86 90 93 96 91 93 91 70 60 67 72 46 57 57 50 45 47 42 24 30 36 41 45 47 37 38 33 36 34 39 43 40 40 35 33
74 73 73 73 76 80 75 74 75 78 80 82 85 88 92 95 91 91 86 71 69 71 70 53 62 55 47 45 38 30 23 28 42 36 46 46 40 39 42 40 35 45 36 41 40 39 32
77 74 74 72 74 79 85 76 76 79 78 84 83 86 92 92 82 96 75 66 70 72 57 31 59 38 42 29 28 28 23 28 36 42 43 42 45 44 42 36 34 37 41 44 42 44 45
79 77 75 75 71 72 80 84 76 78 79 78 82 86 90 99 93 87 73 78 81 77 61 34 44 44 34 30 30 29 28 28 33 44 52 40 42 38 34 33 36 38 40 39 51 53 60
80 79 77 76 75 72 76 86 77 76 77 77 83 85 95 81 88 88 79 89 98 88 34 39 48 39 34 36 34 29 35 39 40 47 50 43 40 38 38 40 42 40 41 53 52 70 65
81 81 79 77 76 75 76 83 84 76 80 79 84 84 91 84 80 90 92 97 97 63 54 49 41 41 34 33 33 34 34 39 40 40 52 49 48 40 38 34 37 43 40 61 53 72 50
81 81 81 78 77 76 76 80 87 78 83 80 82 97 95 87 84 79 96 99 78 65 50 42 39 44 42 34 34 33 36 36 34 36 39 54 44 47 47 42 37 44 47 42 70 84 76
81 81 82 80 78 76 75 79 81 82 80 80 93 96 86 78 85 81 99 82 67 54 56 60 46 42 48 40 36 38 38 32 30 34 36 44 42 46 44 46 43 40 40 50 62 58 64
82 81 82 83 80 77 75 76 79 85 77 79 95 96 78 89 92 99 96 80 62 51 54 65 66 55 43 42 38 43 38 31 29 33 34 48 36 40 55 46 39 45 46 51 49 65 62
85 84 81 82 84 79 76 76 80 87 78 86 95 97 86 88 97 86 85 71 60 54 55 59 66 65 51 43 41 38 36 30 30 44 39 47 50 60 42 46 41 41 43 49 69 54 84
84 85 84 83 88 81 78 76 81 88 79 91 94 87 91 78 92 87 67 63 63 54 57 61 66 62 56 47 41 42 40 35 47 40 47 52 56 68 50 42 42 47 46 52 60 72 69
80 85 87 86 90 83 78 77 80 88 77 88 97 94 97 95 63 69 69 72 66 59 55 53 67 65 61 57 50 42 40 52 56 44 65 48 57 50 54 44 44 49 47 55 54 77 69
81 80 81 88 90 84 79 78 81 88 78 86 98 83 79 93 88 77 65 64 70 61 53 59 68 67 61 66 56 58 62 63 57 69 56 44 48 52 46 40 44 44 44 52 50 53 58
82 81 79 88 90 85 79 78 84 82 78 92 99 93 88 87 70 77 81 68 69 61 64 58 68 60 65 70 52 52 61 61 52 58 55 55 54 61 69 55 53 59 48 50 55 54 53
82 82 81 86 90 86 79 78 82 80 79 95 95 93 93 70 75 80 74 66 62 59 55 56 50 48 66 50 44 47 49 57 61 60 63 58 72 69 62 60 52 64 53 45 47 47 46
83 83 83 86 88 85 80 85 86 82 72 93 90 94 98 88 82 72 64 61 62 60 62 52 57 55 49 53 54 54 61 70 69 75 63 69 69 76 80 73 67 44 46 42 45 44 44
85 82 81 89 86 87 84 87 86 76 74 89 89 92 97 99 76 73 67 63 60 56 62 56 47 44 58 60 73 74 84 74 73 73 73 68 78 81 74 79 56 46 45 46 45 40 45
84 82 84 89 88 89 86 86 80 77 77 81 98 94 97 99 90 62 67 61 68 69 68 64 48 64 65 79 89 84 86 75 78 73 66 66 78 75 85 74 71 56 44 40 40 56 48
82 83 89 90 89 88 84 82 79 74 78 83 92 91 98 99 88 82 69 73 62 65 77 68 58 81 70 95 91 88 82 66 82 78 83 88 91 83 96 82 73 53 43 42 50 52 54
82 88 91 90 89 85 82 79 77 75 79 83 90 91 97 97 87 82 82 74 64 62 72 78 80 88 97 87 92 90 91 83 82 73 79 81 90 92 91 84 75 48 50 48 53 70 62
91 90 90 88 88 85 82 78 78 80 79 78 95 86 90 99 91 89 86 74 77 62 57 75 63 86 84 89 98 98 92 96 80 83 70 69 73 79 71 74 59 57 53 49 56 60 61

GFSGBSN_sfc_rhum_042.txt.gz
RH
77 74 73 74 74 74 70 69 79 82 84 87 86 87 84 85 92 94 92 91 91 90 89 85 84 85 51 23 11 31 80 75 31 25 16 16 18 17 16 16 16 18 15 16 22 24 32
72 77 78 76 74 72 74 72 76 76 78 84 87 89 91 90 91 96 94 92 91 91 90 86 84 88 41 22 20 32 29 28 20 18 14 15 17 17 19 18 18 17 18 27 30 32 30
69 71 75 83 78 76 75 78 75 69 79 72 83 88 89 89 91 94 96 94 93 92 91 87 84 57 46 23 19 27 24 18 18 14 14 14 16 18 19 18 18 17 21 26 28 32 32
70 70 69 73 78 83 78 75 76 78 72 77 79 85 89 89 91 92 96 96 93 92 90 88 85 59 35 20 18 26 22 21 18 16 16 15 15 18 21 18 16 17 18 20 20 30 31
65 65 70 73 71 76 86 78 76 76 77 76 78 82 87 88 90 92 97 96 93 88 85 84 70 61 26 34 23 15 20 19 21 19 18 15 17 20 20 17 16 18 17 19 19 27 29
68 67 70 71 75 75 76 84 78 77 78 78 78 80 84 89 92 94 96 93 83 82 72 62 53 57 28 14 18 23 18 18 20 21 22 21 20 21 17 15 18 18 18 19 21 23 29
66 71 73 72 72 71 66 72 85 80 78 79 76 78 80 89 92 96 79 52 48 57 67 43 35 31 12 18 26 22 23 24 20 21 24 25 24 20 15 15 17 18 17 18 17 17 22
73 73 70 73 74 70 65 66 73 87 80 78 77 75 79 83 88 94 74 62 52 53 53 37 37 33 28 23 28 23 19 23 25 24 24 27 25 21 22 22 22 22 20 20 20 19 20
77 76 75 73 73 73 71 70 69 79 86 78 78 75 78 80 93 88 68 61 48 49 58 42 32 31 29 30 26 18 20 18 21 22 24 25 21 24 24 23 25 23 23 23 22 22 19
79 80 79 77 76 76 76 75 72 73 80 83 78 77 82 84 86 61 62 53 50 54 53 30 33 30 33 27 28 16 17 16 21 22 22 24 21 24 24 23 22 24 20 22 25 24 20
80 80 80 80 80 78 78 78 76 72 71 86 81 79 81 87 89 64 53 55 60 63 46 23 37 27 31 24 19 21 16 19 21 23 24 24 24 26 24 21 21 22 23 24 25 22 24
81 81 80 80 81 80 79 79 78 76 75 82 85 79 80 72 75 61 54 61 62 65 44 22 35 41 40 31 19 18 21 18 17 21 25 19 22 21 20 22 21 24 25 25 27 25 32
82 82 82 81 80 80 81 80 78 78 76 82 84 79 78 50 65 56 67 66 63 57 24 20 36 39 32 28 22 21 22 26 23 31 31 25 23 20 22 24 25 23 26 34 34 36 36
82 82 82 83 82 81 82 82 80 79 77 82 84 83 76 60 51 69 73 92 58 19 25 26 33 35 33 21 22 22 21 23 20 19 20 26 29 21 20 23 21 24 24 34 39 38 27
82 83 82 82 83 83 82 82 81 80 78 79 83 95 87 72 63 81 95 89 34 25 28 28 28 38 34 24 20 24 23 20 20 20 23 27 23 21 23 22 19 28 30 23 35 47 36
83 84 83 83 83 83 83 82 82 81 79 78 86 93 81 76 67 96 96 64 29 21 28 33 31 34 38 27 27 25 26 19 20 19 15 25 30 26 29 25 27 26 22 33 30 42 38
86 84 85 84 84 84 84 83 83 82 79 80 91 98 64 75 83 99 90 54 32 26 31 41 37 30 34 31 26 26 23 22 18 21 17 19 25 34 32 30 24 30 29 28 26 31 38
76 82 88 87 85 85 85 84 84 82 80 87 91 99 72 63 98 92 78 48 39 30 35 40 42 48 39 34 32 28 24 20 18 18 26 22 26 36 25 24 23 19 22 25 37 33 38
76 78 78 84 85 86 85 85 85 84 82 89 94 96 82 68 92 93 59 50 35 36 33 43 46 43 43 42 37 28 24 21 22 22 23 28 30 38 30 28 27 25 23 22 29 38 39
78 77 78 79 79 89 88 87 87 87 84 85 96 99 99 94 44 57 58 52 47 35 31 38 39 43 47 48 37 34 27 31 30 22 51 36 26 29 34 24 19 30 25 24 28 43 36
82 82 80 79 79 82 88 90 89 88 85 83 98 89 83 96 80 50 49 42 44 47 38 36 45 45 46 51 44 41 32 37 37 56 29 29 31 27 20 16 16 17 17 25 27 28 33
80 79 83 82 80 80 82 90 91 90 87 93 98 80 71 54 60 58 56 55 40 40 39 39 46 45 44 44 39 43 46 43 30 43 32 28 30 32 32 23 22 22 19 18 22 21 23
82 82 80 82 82 80 81 83 93 90 89 96 94 53 51 55 59 63 60 53 47 41 37 28 33 35 48 43 43 46 44 43 36 42 43 40 38 40 35 30 30 49 37 23 23 25 26
86 86 85 81 82 81 80 82 89 90 86 90 59 71 72 60 60 59 51 42 41 40 47 35 31 42 36 44 39 39 41 48 43 36 35 49 46 44 48 69 80 24 24 20 24 22 20
84 85 83 85 84 83 80 80 84 90 85 76 63 67 61 87 51 51 51 45 40 42 44 38 40 34 43 39 47 49 58 50 52 48 48 40 47 57 79 50 29 29 29 29 30 24 18
88 88 85 85 86 83 80 80 85 91 86 72 69 55 80 69 56 38 59 48 53 52 60 46 33 46 50 69 63 63 44 40 49 56 48 46 52 57 62 56 73 27 20 22 22 36 17
86 88 86 88 86 82 80 82 88 90 85 69 75 72 80 66 41 44 64 59 43 45 54 48 52 56 47 79 96 66 53 30 46 69 81 66 64 75 61 68 41 28 25 25 40 36 22
84 88 88 84 83 80 81 84 90 88 84 70 86 72 66 73 63 66 66 60 49 48 60 50 55 62 72 77 72 60 80 62 43 39 60 59 66 80 60 83 74 31 29 33 29 35 27
90 83 81 82 81 80 81 87 89 87 87 70 89 68 66 75 90 70 76 76 80 35 42 55 43 47 49 60 68 57 95 95 57 66 48 67 48 51 46 46 31 34 26 26 29 26 33

GFSGBSN_sfc_rhum_045.txt.gz
RH
67 70 74 80 75 74 73 74 76 77 79 80 83 83 79 79 83 90 94 95 94 92 91 88 85 84 56 27 15 31 80 71 24 19 14 14 14 14 12 10 12 13 12 13 16 17 21
69 71 70 73 79 76 70 75 78 77 74 80 79 82 85 83 84 89 92 95 95 94 92 89 86 90 41 32 10 18 22 23 14 14 14 12 13 13 14 12 12 13 13 18 18 20 21
68 70 72 75 76 76 82 78 76 76 77 76 79 80 82 86 86 88 91 93 95 94 93 89 86 52 40 27 12 16 17 14 12 12 12 12 13 15 14 14 12 12 15 17 19 19 21
66 65 67 74 77 77 77 82 83 76 76 78 75 79 80 86 86 87 90 92 96 95 92 86 85 45 35 14 10 16 16 13 12 12 12 12 13 15 16 13 13 12 13 26 16 18 20
69 70 67 71 73 78 77 76 82 83 76 77 77 77 80 83 87 89 92 94 95 94 83 81 63 48 28 30 15 13 16 14 12 13 14 12 15 16 15 16 14 14 18 24 22 15 25
65 68 73 75 73 74 77 76 77 84 85 76 77 76 76 79 87 90 94 95 81 83 68 46 40 47 27 15 10 8 16 14 16 16 18 20 18 18 15 12 16 14 15 14 24 57 17
65 69 71 72 76 74 68 70 73 77 85 85 77 76 76 78 84 86 82 40 45 53 45 25 26 20 12 11 18 15 12 17 16 18 22 19 20 21 15 12 11 13 14 16 18 13 15
74 74 73 72 73 70 71 73 73 74 77 84 82 76 75 75 82 88 80 40 36 49 48 26 24 24 22 17 22 14 15 19 22 23 18 20 25 15 14 14 14 15 15 14 13 13 15
78 78 78 77 75 75 72 71 77 76 74 82 87 78 76 76 84 79 55 38 34 42 46 23 20 22 20 18 22 15 16 17 19 22 18 22 18 16 16 15 17 17 18 21 17 17 14
80 80 80 79 79 79 78 76 76 76 75 79 85 84 79 79 79 40 44 33 38 47 42 20 28 23 18 20 24 13 13 15 17 20 17 18 15 18 17 17 16 20 14 16 18 18 22
81 81 82 81 81 81 81 79 78 78 77 75 84 85 80 84 66 51 42 40 44 55 40 17 19 19 19 22 14 16 11 15 19 17 17 21 19 21 20 17 16 18 18 18 19 20 20
82 82 82 82 82 82 81 82 81 80 79 77 80 86 82 68 61 56 47 52 57 55 41 18 24 30 31 25 16 12 14 14 13 16 16 17 13 15 16 14 16 16 20 20 20 21 33
82 82 82 83 83 82 82 82 82 81 80 79 79 85 79 50 57 42 66 76 51 42 15 16 24 26 28 26 20 16 19 20 19 25 25 18 18 15 15 20 18 19 24 34 35 35 36
84 84 84 83 83 83 83 83 83 82 82 80 80 84 79 55 45 65 87 92 44 15 17 19 20 26 28 21 23 20 21 21 17 17 19 24 27 18 17 19 20 22 22 34 66 38 28
84 84 84 83 83 84 84 83 83 83 82 81 81 63 69 75 55 70 99 91 37 18 10 16 19 30 30 20 20 20 22 19 16 15 21 23 22 13 14 15 16 21 26 20 35 29 32
84 84 84 84 84 83 84 84 84 84 83 82 78 65 62 76 61 76 100 80 30 13 10 15 21 23 29 23 21 22 22 16 16 14 14 18 25 16 17 17 17 20 18 30 27 42 47
84 82 83 83 84 84 84 85 85 84 83 83 88 94 48 71 79 96 91 61 39 15 12 15 22 19 24 26 20 22 22 16 14 14 14 16 22 23 23 26 23 22 26 24 22 30 45
83 84 82 84 84 86 85 85 85 85 84 89 93 98 64 70 99 88 81 49 38 20 18 16 21 22 21 28 24 20 23 18 15 14 20 18 23 34 27 19 16 18 22 22 36 32 32
84 85 88 84 81 81 86 86 86 86 86 96 98 88 80 67 96 82 55 47 35 29 23 19 27 29 25 28 34 25 23 22 23 17 21 20 24 37 29 24 20 22 20 18 22 25 34
86 85 83 80 79 80 86 90 88 87 88 95 98 99 99 94 52 50 50 47 37 35 28 18 24 26 30 36 29 30 26 24 28 21 46 33 23 28 35 29 21 25 20 17 21 41 35
84 82 81 80 78 77 79 83 86 88 89 95 98 93 84 96 81 56 42 34 33 36 31 27 25 27 26 36 31 32 30 31 33 42 29 27 29 24 20 18 17 18 18 18 19 20 30
82 81 81 80 80 79 78 79 84 88 90 98 99 61 64 55 68 54 48 40 30 27 27 31 32 29 27 30 27 34 32 33 33 29 31 24 32 27 26 19 17 18 14 14 14 16 17
81 81 82 81 81 82 80 79 80 89 92 98 96 44 55 56 67 58 51 40 31 27 26 22 24 28 35 27 35 40 38 40 38 40 38 28 37 34 42 23 23 37 23 16 15 14 17
83 82 82 81 81 80 82 81 80 88 91 96 92 44 68 66 67 52 42 36 30 26 32 24 26 31 27 24 33 34 35 38 38 36 32 38 38 38 50 64 63 25 16 15 18 15 13
84 83 82 84 84 82 81 81 81 82 89 93 60 52 62 89 44 46 41 37 33 28 36 26 24 24 24 35 43 44 49 45 37 40 36 32 45 54 65 51 32 20 18 20 20 19 13
88 87 88 85 84 86 82 81 82 80 85 92 58 50 73 69 61 37 41 37 40 39 41 38 26 27 38 44 49 50 32 27 36 54 41 37 42 61 56 55 62 31 18 15 15 33 14
90 86 85 87 87 87 84 82 82 79 85 92 88 64 72 64 46 43 48 42 34 36 43 43 35 49 40 67 84 60 38 16 30 69 75 72 69 77 64 60 38 19 16 15 38 34 17
85 86 85 84 85 84 85 82 82 81 89 90 92 63 59 67 56 46 44 58 40 37 52 41 47 51 62 73 70 49 59 34 31 22 46 65 64 79 63 66 72 28 23 30 28 24 22
86 90 90 90 90 82 86 84 82 82 89 85 94 59 68 85 96 64 58 58 47 31 37 46 50 52 41 51 55 46 74 84 41 59 22 57 50 57 43 44 34 31 28 24 19 20 23

GFSGBSN_sfc_rhum_048.txt.gz
RH
69 70 70 70 72 76 78 73 76 77 76 75 71 76 77 77 78 84 88 91 92 94 95 92 90 89 62 30 23 34 77 66 23 19 17 13 14 12 15 12 9 12 10 11 13 15 14
68 70 72 72 72 71 71 80 81 77 74 73 76 65 74 79 80 84 85 89 92 93 95 93 90 92 50 40 12 19 24 29 15 16 14 12 12 12 15 14 12 10 12 11 15 15 18
67 67 70 75 77 76 72 78 79 84 80 73 75 74 75 74 82 85 85 86 90 92 95 94 88 63 50 38 12 10 16 18 13 12 13 11 11 14 14 17 12 11 13 12 16 17 19
66 69 70 73 74 77 80 79 79 78 82 82 74 72 68 75 82 85 86 88 91 92 94 93 84 58 53 18 13 14 13 15 10 10 12 11 12 15 16 15 14 14 13 16 15 21 34
66 68 68 74 77 76 77 80 78 78 80 84 82 75 74 68 76 84 87 87 89 91 91 82 68 58 39 26 20 13 12 16 12 12 13 11 13 17 16 18 18 15 17 18 17 19 23
65 69 71 73 73 76 77 77 80 79 79 84 84 82 76 76 76 82 86 82 72 83 72 50 43 41 31 20 12 11 11 15 13 15 16 17 16 19 18 17 23 17 16 14 24 24 21
65 66 71 73 74 75 68 75 76 78 79 81 83 85 80 77 75 82 71 53 43 65 57 38 27 24 14 15 13 10 10 18 15 16 22 18 22 25 20 17 13 11 13 19 20 18 26
73 74 71 71 75 75 68 70 72 79 78 77 81 82 84 78 77 82 66 60 25 41 46 22 23 26 20 17 21 15 9 21 22 24 19 21 27 19 16 15 14 13 14 15 12 16 15
78 80 79 76 75 76 74 75 76 74 81 79 79 84 84 79 80 72 58 48 28 33 47 23 14 16 18 17 24 19 14 17 21 23 22 24 20 16 16 17 16 15 16 17 23 17 15
81 81 82 79 79 79 79 79 79 78 78 82 80 85 83 78 78 51 43 33 30 41 53 15 12 16 12 16 19 16 12 17 18 21 20 20 15 17 19 16 13 18 13 14 17 19 21
81 81 82 82 83 82 82 82 82 80 79 80 82 85 83 83 64 60 55 51 36 57 41 10 12 15 16 20 16 17 14 17 21 19 20 23 18 18 22 17 14 17 18 19 18 19 21
81 81 81 82 83 84 84 84 83 83 81 81 82 85 82 72 66 53 47 57 56 63 44 14 23 26 24 22 19 14 18 14 16 18 18 17 13 15 17 15 14 14 18 21 21 23 37
82 82 82 83 83 84 85 85 85 84 83 83 82 82 79 47 73 46 71 83 70 50 10 10 21 25 26 29 25 23 21 21 23 28 30 18 16 14 14 18 16 17 23 38 41 43 45
83 82 83 84 84 84 84 86 85 85 85 84 83 82 73 49 50 58 83 99 56 20 21 15 13 20 29 27 27 26 22 22 20 19 23 25 30 17 16 18 21 22 23 43 68 72 53
81 81 82 83 84 84 84 85 86 86 86 85 84 78 69 62 63 77 96 97 47 25 12 15 15 23 26 25 23 26 22 22 19 19 26 27 24 14 15 15 17 22 28 22 51 48 58
83 83 83 83 84 84 85 85 86 86 86 85 93 87 73 60 65 88 99 75 38 20 17 14 17 17 25 26 26 25 27 20 21 18 18 23 32 16 14 14 16 19 18 33 30 56 59
84 84 84 84 84 84 85 85 86 87 86 86 96 99 60 61 80 98 97 76 42 24 20 21 18 16 18 21 25 24 24 20 19 19 18 20 26 25 17 20 20 21 24 31 28 31 55
83 83 84 84 85 85 85 86 86 87 86 91 96 100 65 69 98 96 78 60 48 28 22 26 22 24 20 22 24 36 23 21 15 17 22 22 33 36 22 16 17 19 23 26 42 42 45
83 83 84 85 84 84 84 85 86 87 86 96 98 97 78 69 94 95 66 48 42 37 27 24 27 26 20 25 33 30 30 19 23 20 24 24 30 42 30 28 21 22 21 21 25 31 42
83 84 84 84 84 83 84 85 87 90 86 95 99 99 98 94 52 65 63 54 46 37 31 21 25 21 23 30 37 32 34 21 28 21 55 47 29 32 46 36 25 28 23 25 32 55 48
84 90 85 87 85 86 89 85 91 92 90 96 99 96 79 96 91 59 54 41 42 41 34 28 25 26 26 49 39 43 33 37 25 36 32 34 40 31 25 20 20 23 22 20 21 22 34
86 82 81 82 92 86 85 82 82 86 91 98 100 71 61 51 70 65 61 54 42 32 30 33 34 28 25 36 33 36 37 35 33 27 31 28 39 36 40 24 21 27 26 18 18 18 18
81 81 82 82 83 82 81 81 80 82 91 98 98 60 54 60 70 71 66 53 44 36 30 22 27 32 33 30 35 56 39 51 37 36 38 38 46 44 52 30 28 40 29 20 18 15 17
82 82 81 80 79 81 81 80 80 79 88 99 95 58 78 67 75 64 51 44 42 37 39 24 24 30 25 29 49 75 51 48 46 37 36 44 46 53 73 71 60 29 20 18 20 18 15
82 82 83 83 82 81 80 80 80 79 79 96 95 70 72 91 50 56 51 44 40 38 37 32 23 21 22 46 73 95 89 80 46 36 38 39 51 76 73 61 41 26 23 23 26 24 16
85 85 89 88 83 83 82 81 81 81 79 92 97 78 69 74 63 39 48 44 51 47 42 37 27 25 30 44 75 89 96 58 49 39 34 39 51 70 80 69 66 41 23 19 19 37 19
90 88 87 83 84 83 83 82 81 82 81 90 95 92 83 88 48 47 54 53 40 42 44 37 36 41 54 62 87 90 88 30 40 51 71 72 75 83 75 78 60 26 21 20 40 42 25
87 87 87 86 84 82 84 84 81 82 82 89 95 89 88 90 54 57 58 75 53 43 52 39 43 51 82 85 75 65 69 44 34 27 70 88 84 90 78 79 75 33 26 33 34 37 30
90 88 88 88 87 87 86 84 86 83 83 81 95 92 78 90 91 76 70 70 64 50 42 43 45 43 55 76 61 57 86 77 43 51 29 73 62 77 54 57 45 38 36 33 33 34 34

GFSGBSN_sfc_rhum_054.txt.gz
RH
71 70 70 69 69 71 71 72 77 81 81 80 79 74 67 65 68 76 77 82 84 84 82 80 85 87 93 74 57 38 69 65 44 28 25 22 25 26 25 22 23 24 20 18 18 42 52
67 68 71 74 75 72 70 70 79 82 83 83 81 79 79 73 67 73 77 79 81 82 84 81 82 92 95 88 28 28 49 48 29 27 27 27 25 22 24 26 30 26 24 23 18 44 42
67 69 70 75 76 75 77 80 80 81 82 82 82 83 82 80 77 75 76 78 80 81 83 79 80 86 84 75 40 40 38 41 32 26 25 23 24 26 25 26 28 23 26 23 22 39 48
67 68 68 74 77 78 78 82 80 78 81 81 81 83 85 83 82 82 80 80 80 78 78 80 80 87 86 47 49 46 43 40 31 27 23 22 20 24 28 29 26 27 32 33 23 42 46
64 64 67 73 75 77 78 78 79 80 80 82 82 82 88 87 84 85 84 82 80 77 78 84 86 93 88 49 49 40 33 29 25 28 23 16 22 25 30 34 39 40 38 34 28 28 46
68 67 68 71 74 76 76 78 78 80 80 82 83 83 84 87 85 86 86 82 73 81 78 76 75 84 59 28 27 24 32 24 25 29 26 24 30 32 36 40 47 39 38 43 29 39 51
69 69 66 67 68 69 70 72 76 79 79 79 80 83 83 84 85 87 88 76 63 81 86 80 71 60 32 23 28 24 26 24 26 29 31 33 34 42 36 34 31 31 32 33 25 24 43
69 70 67 69 72 73 73 74 79 81 81 81 81 84 84 84 84 87 89 83 71 68 77 50 59 58 44 38 44 32 23 25 34 41 31 34 36 29 29 30 32 32 34 33 23 25 27
69 69 71 70 72 74 74 75 79 81 82 83 83 82 85 84 85 87 84 66 51 67 91 54 42 49 47 46 52 35 27 27 39 44 37 34 30 25 27 29 32 33 36 31 25 26 31
69 72 73 71 73 75 76 78 81 82 83 84 85 83 85 83 87 80 79 58 55 63 96 60 40 34 31 31 44 26 26 21 37 38 38 35 24 26 31 31 29 37 26 24 27 33 36
68 73 78 75 76 80 83 84 84 84 84 84 86 85 85 81 88 88 63 56 57 80 37 15 25 22 27 24 26 29 18 28 34 35 33 38 34 33 34 30 27 32 28 27 30 38 43
73 74 74 79 82 83 83 84 85 86 86 86 87 87 86 87 97 84 64 61 80 94 87 38 26 25 29 26 27 26 30 28 30 32 30 28 24 28 29 25 26 24 31 35 41 44 57
76 77 77 81 82 82 84 84 85 86 86 85 86 87 86 71 81 69 59 86 96 90 27 19 37 32 24 27 22 29 30 36 40 47 42 29 28 24 24 28 29 29 36 56 60 71 65
76 76 78 79 79 81 81 83 84 86 86 86 86 88 87 79 77 74 84 99 93 49 32 24 23 34 37 28 25 27 35 38 34 37 45 45 51 29 25 27 30 33 36 61 65 87 70
72 75 76 78 80 81 82 83 83 86 86 86 88 96 96 92 81 86 97 99 73 51 28 28 21 23 46 36 36 30 38 36 33 30 43 51 42 25 22 22 26 34 40 38 66 77 80
68 74 76 77 79 81 83 85 85 85 85 85 97 97 88 82 81 94 99 90 65 45 39 39 37 36 41 38 40 44 44 37 34 31 28 38 50 29 23 25 24 28 29 49 65 75 78
73 76 78 78 80 81 82 83 86 86 86 87 99 99 80 82 91 99 97 80 62 50 49 54 44 38 41 45 40 38 41 37 33 33 31 30 42 40 34 35 32 35 37 43 49 66 71
79 78 78 80 80 80 81 83 85 87 86 93 99 100 88 75 99 94 87 63 61 51 46 47 50 44 43 45 48 43 42 37 35 30 36 32 38 44 35 28 26 30 33 39 60 62 70
78 80 81 81 81 81 81 82 86 87 88 98 99 98 94 79 96 94 69 64 62 60 55 54 49 47 38 48 54 49 47 38 48 47 43 35 46 61 43 34 32 32 30 31 46 62 70
80 80 81 82 83 82 82 82 84 86 87 98 99 100 100 97 79 76 74 67 67 57 59 58 60 55 51 52 46 52 46 40 54 58 73 62 46 40 48 46 40 44 32 29 41 76 64
80 81 80 84 84 82 83 84 85 85 88 98 99 98 90 98 96 86 73 62 65 65 59 56 63 58 63 63 45 43 45 59 53 68 64 61 51 44 35 32 31 30 35 36 37 43 53
82 83 83 83 84 86 86 85 86 85 88 99 100 98 86 82 77 88 78 75 70 64 58 64 63 49 52 62 53 50 49 60 66 64 72 71 77 49 52 36 35 37 30 33 35 38 41
84 84 84 84 86 86 86 86 87 89 92 98 97 89 73 81 79 94 85 75 65 65 59 52 52 53 56 49 48 51 55 60 71 69 84 87 93 88 58 42 38 54 42 38 33 38 39
86 84 85 86 86 87 87 87 85 88 91 95 95 94 98 97 80 82 70 67 64 63 68 49 49 55 48 38 58 73 77 76 78 82 76 80 89 92 80 68 69 40 28 31 34 30 34
87 86 85 83 83 83 82 86 89 90 90 98 96 97 98 95 80 68 70 67 63 62 64 61 53 46 45 46 62 61 80 71 69 68 94 76 89 99 88 70 52 42 36 37 41 38 30
83 83 83 82 82 82 82 82 84 83 84 94 96 96 96 92 86 63 66 67 76 80 74 63 50 52 53 62 78 70 81 76 81 83 68 86 77 92 95 92 67 52 37 35 34 56 32
82 82 83 83 83 83 83 82 83 84 82 90 98 90 98 100 86 67 70 73 61 69 78 68 62 60 55 83 92 89 70 64 77 93 98 98 99 97 98 99 82 57 48 32 50 48 37
89 89 88 87 86 86 86 84 83 82 83 91 99 93 95 100 95 78 60 72 64 64 74 69 70 75 84 84 88 84 91 78 76 74 87 90 98 99 98 99 91 59 49 47 58 60 42
90 90 91 90 90 90 89 89 84 83 83 83 99 95 93 97 95 92 87 78 50 46 59 72 68 64 70 86 91 89 89 91 71 78 72 78 75 90 90 93 59 63 58 71 58 56 55

GFSGBSN_sfc_rhum_057.txt.gz
RH
68 68 70 73 75 75 72 70 76 82 84 84 83 79 75 73 75 76 77 80 79 80 78 76 77 78 91 83 66 44 69 68 48 26 23 23 26 26 26 24 27 24 25 24 23 40 51
67 68 70 71 72 71 71 73 77 82 83 83 84 83 82 78 79 81 81 79 80 81 81 77 76 79 86 88 31 36 53 51 32 31 29 24 23 24 26 28 31 27 27 26 24 48 51
64 65 70 73 73 74 74 78 78 79 81 83 82 83 83 80 83 83 82 83 84 82 81 77 75 74 77 74 50 45 36 45 38 28 27 27 25 32 31 30 28 28 29 27 31 48 44
66 65 64 72 76 78 79 80 79 77 80 80 77 84 84 85 86 83 84 84 85 84 81 79 76 80 85 50 60 55 55 47 38 32 29 25 24 28 30 29 28 30 37 37 29 43 43
64 63 68 68 74 77 79 81 82 76 77 82 83 85 86 86 86 85 85 85 85 82 79 80 82 88 87 54 55 50 42 36 32 34 32 21 26 28 32 36 39 43 36 39 30 32 48
66 67 68 68 70 72 73 75 78 80 82 83 83 82 84 86 85 85 86 86 78 83 76 74 74 86 61 40 30 31 44 32 29 32 37 31 31 36 41 39 48 38 42 55 35 35 58
66 69 70 68 66 69 72 72 77 80 82 83 82 82 82 86 85 85 86 76 59 81 77 80 71 70 46 32 35 36 30 33 28 33 40 33 38 42 32 35 33 36 39 39 32 26 43
67 69 70 64 70 68 72 74 79 82 83 84 84 84 84 84 87 86 90 86 71 68 92 62 57 60 54 48 54 36 28 32 36 41 35 37 41 28 32 33 36 37 40 40 33 27 41
65 66 67 64 68 68 69 73 79 83 84 84 85 85 84 86 88 86 91 78 52 60 92 74 54 49 39 52 58 45 33 30 37 43 39 42 33 27 31 35 38 38 42 41 40 31 41
67 73 71 61 64 70 73 74 77 82 84 85 86 86 86 85 82 83 85 63 57 61 96 54 59 41 40 45 58 30 24 27 40 34 45 42 30 31 36 33 35 42 33 34 32 36 41
70 70 71 69 72 77 80 81 82 84 85 86 86 87 87 84 85 85 61 54 57 80 51 15 33 28 37 35 26 36 26 28 32 43 42 47 39 36 34 31 32 39 37 36 35 40 45
70 69 70 71 75 79 82 81 83 82 85 86 87 87 88 94 97 90 74 63 77 98 76 35 28 38 43 37 28 31 33 32 30 37 39 34 32 33 34 30 31 29 37 43 51 48 60
71 72 69 72 74 78 76 77 80 81 85 85 86 87 87 77 86 77 74 82 99 97 32 24 35 32 33 35 28 30 39 39 42 49 48 32 34 30 30 34 34 36 41 58 58 69 66
69 71 72 70 72 76 78 80 82 83 85 86 87 89 87 86 86 78 88 97 93 55 46 28 25 30 32 30 28 26 39 35 40 40 44 41 51 33 30 30 33 37 40 63 61 78 60
68 69 72 74 73 74 78 80 84 84 85 86 87 96 97 98 83 89 96 99 74 61 39 47 28 36 40 38 34 34 38 37 28 37 44 55 48 31 28 26 27 38 47 38 65 82 85
67 68 71 73 75 76 79 80 80 82 84 86 97 98 88 92 82 94 98 88 85 52 54 52 39 38 45 41 41 43 45 39 35 28 33 44 52 34 27 28 29 31 34 53 66 80 81
66 67 71 74 76 78 78 80 82 83 84 86 99 99 82 81 90 99 95 76 62 49 50 60 58 52 50 48 44 40 42 42 38 37 32 34 46 43 35 39 36 39 42 47 52 67 68
74 73 75 78 79 80 80 80 82 83 85 91 98 100 89 79 100 97 90 66 56 52 52 55 58 51 52 54 53 47 42 40 45 47 44 42 51 50 38 31 30 31 39 42 61 61 75
74 76 77 79 79 80 80 81 81 82 84 97 99 98 95 79 97 90 72 66 57 58 56 58 56 54 46 53 49 53 51 43 48 48 62 57 55 54 47 40 36 38 36 36 53 65 72
77 78 79 78 79 82 83 82 82 82 83 97 100 100 100 97 86 71 85 75 69 58 64 62 63 62 58 58 52 53 52 42 40 61 74 72 59 52 58 46 40 44 35 34 42 66 58
78 78 78 78 80 81 82 83 84 83 83 97 100 98 92 98 95 78 69 64 75 67 58 62 66 62 66 78 59 58 44 44 45 64 65 73 84 73 50 37 33 36 39 38 41 42 49
78 79 79 80 81 82 81 83 85 86 85 99 100 100 94 95 81 84 77 75 66 62 61 66 70 65 60 65 59 60 49 49 53 64 70 70 90 91 71 45 39 39 34 33 35 41 45
79 80 81 81 81 81 83 86 87 88 90 98 96 90 87 97 92 94 80 74 72 63 63 51 61 67 71 60 54 52 53 57 63 64 71 78 88 92 94 73 51 62 46 36 38 41 44
83 83 83 83 83 83 84 86 88 89 91 95 96 95 99 98 85 82 72 70 68 67 67 61 60 67 57 49 53 59 74 68 79 88 76 89 88 96 99 84 92 54 36 32 38 35 35
84 86 88 86 85 85 86 88 88 90 90 98 95 95 93 96 90 74 71 80 71 63 66 64 56 52 56 60 67 69 83 68 68 78 90 78 90 99 98 96 82 53 42 43 42 37 33
87 86 84 84 85 86 85 87 89 91 90 96 96 96 94 96 92 69 70 68 90 80 71 72 58 58 62 73 80 75 83 68 78 87 83 87 86 86 99 96 88 68 44 34 36 50 36
84 84 83 83 83 84 83 82 80 81 88 95 97 91 99 99 78 72 75 79 66 80 86 77 72 74 64 89 94 94 82 65 72 86 92 93 98 94 95 96 89 69 58 57 71 56 48
86 86 86 86 84 84 83 83 83 82 81 94 97 96 96 98 90 79 67 74 69 69 85 71 74 77 92 89 93 86 95 81 72 76 76 91 97 96 97 99 93 68 69 90 68 57 56
89 90 91 88 89 88 85 85 84 83 81 87 98 92 96 98 96 88 87 79 56 50 60 76 68 71 79 88 93 89 93 96 80 86 75 81 78 92 88 87 77 65 74 71 78 71 56

GFSGBSN_sfc_rhum_060.txt.gz
RH
67 67 69 71 71 72 71 72 75 81 81 82 83 79 75 72 74 77 82 82 83 83 82 77 75 76 81 90 66 44 72 78 57 27 24 24 28 27 25 24 26 25 25 26 24 29 48
58 65 66 70 70 70 69 72 75 80 81 82 84 84 81 76 74 76 81 80 82 83 84 80 77 75 92 82 33 46 49 58 35 29 28 23 23 25 27 28 30 29 28 29 27 37 50
65 64 65 68 69 71 72 74 76 76 80 79 81 83 84 81 80 82 83 82 82 82 82 81 78 73 84 64 51 49 48 45 40 30 28 28 25 32 33 36 29 32 34 29 27 44 50
65 63 64 67 71 74 75 76 77 77 78 77 77 83 85 86 86 86 85 83 80 79 81 80 78 84 85 49 64 60 62 49 41 36 34 30 28 29 31 30 31 35 37 39 28 49 51
62 64 61 66 70 74 74 76 77 74 75 82 83 85 85 85 86 86 86 84 78 77 81 82 80 78 81 51 58 54 50 41 34 37 37 23 28 32 34 38 39 41 42 38 30 38 55
68 59 67 69 69 68 67 72 79 79 81 84 84 84 84 85 86 89 88 83 71 79 73 71 65 74 47 23 33 38 55 42 32 38 40 39 37 40 43 41 47 45 46 54 39 38 54
66 61 64 64 68 64 66 67 75 81 83 84 84 85 86 85 86 88 88 78 70 75 73 80 76 62 45 38 39 42 40 40 37 40 45 42 46 48 36 38 33 34 42 43 35 31 39
67 70 64 58 63 65 67 68 73 80 82 82 85 86 86 86 87 89 92 88 74 73 94 64 68 67 56 53 67 40 34 39 40 43 41 42 45 36 31 35 36 39 45 41 35 32 37
71 67 63 61 66 63 61 66 74 80 82 85 87 87 88 88 88 83 92 81 60 59 96 67 59 54 38 44 55 43 36 36 41 44 41 44 39 29 33 40 40 42 45 44 40 38 38
68 68 69 67 68 58 60 69 72 75 82 85 87 88 89 89 88 87 88 59 55 62 94 65 74 54 38 50 61 30 27 30 41 39 45 43 35 35 38 36 36 43 36 36 39 42 49
68 70 69 64 65 70 73 74 75 76 79 82 85 88 89 86 94 93 63 65 54 90 63 19 44 32 44 34 27 40 27 32 42 41 46 47 45 38 41 38 33 33 37 40 42 48 50
70 70 67 69 70 74 75 76 78 77 79 80 83 85 87 92 97 87 84 74 78 98 83 38 36 43 54 45 33 36 36 33 31 43 45 38 39 37 32 32 33 32 39 45 55 53 66
71 70 71 70 68 70 72 74 79 76 78 81 82 83 88 84 82 83 80 86 97 96 42 29 34 42 45 45 40 36 40 44 39 47 49 39 40 36 32 36 41 39 45 62 62 73 70
70 71 72 69 68 70 70 73 80 79 82 83 84 86 88 89 77 83 89 98 94 66 60 38 33 32 41 35 34 34 39 44 38 40 43 41 48 35 32 34 39 44 42 66 64 73 58
66 66 66 68 69 66 69 72 79 79 81 85 84 96 95 92 80 87 93 99 81 67 51 58 44 39 45 37 38 32 40 33 31 38 42 48 43 33 33 32 29 41 50 40 67 85 85
65 66 68 68 70 69 70 71 76 78 81 83 99 97 86 90 78 94 99 82 78 61 56 56 58 48 51 44 44 43 39 43 32 34 39 46 54 37 31 30 35 35 38 57 68 78 84
64 66 67 67 71 73 69 71 76 80 82 83 97 99 83 83 95 99 98 92 62 45 54 59 64 62 52 54 48 43 50 44 45 43 37 42 47 44 38 41 39 41 45 52 55 68 65
70 69 70 68 68 69 70 72 76 79 80 87 97 98 93 88 100 100 97 94 55 50 54 57 62 65 55 53 48 53 52 48 37 53 45 43 51 56 38 33 34 36 44 44 62 61 76
72 71 71 68 68 72 74 76 80 80 80 94 96 95 96 87 98 98 97 82 61 54 61 62 63 65 57 54 44 50 52 48 41 40 68 58 58 66 55 43 40 42 39 41 56 63 70
72 73 70 67 69 72 76 79 80 81 80 96 100 98 99 99 93 85 87 81 75 60 58 66 66 65 62 63 52 57 50 44 42 36 77 74 64 64 67 57 44 51 40 36 46 69 64
74 75 75 74 73 77 78 78 79 82 82 96 99 99 90 99 98 81 76 73 77 69 62 61 70 67 69 73 65 60 53 55 48 47 66 72 79 83 73 60 52 43 41 42 44 49 54
72 74 75 77 78 78 78 78 78 81 81 99 100 99 98 98 80 94 84 81 67 64 66 72 74 68 67 76 65 66 55 54 54 56 64 68 82 87 72 66 63 63 42 40 41 45 48
76 77 78 79 79 79 79 79 81 81 83 99 98 94 97 97 93 97 92 74 73 62 65 57 63 69 76 63 58 53 58 56 57 62 77 83 87 92 91 79 72 74 59 48 41 39 43
80 80 80 80 81 80 80 82 85 84 84 97 97 97 99 99 97 92 73 69 66 63 68 60 58 67 59 58 60 64 68 61 59 62 64 86 90 98 98 80 94 61 43 48 49 42 42
84 83 82 82 82 84 86 86 85 85 86 98 96 96 98 97 96 86 77 74 65 62 67 65 57 54 61 69 75 74 81 75 77 78 80 86 92 98 98 88 71 54 49 54 68 58 42
88 88 86 85 84 85 89 88 87 87 87 96 97 97 91 95 94 74 77 73 83 78 75 68 55 62 63 78 84 96 86 67 73 83 73 93 86 87 98 96 88 61 62 61 66 60 54
84 86 86 86 84 83 82 87 86 89 89 94 97 93 99 99 79 79 80 91 77 83 86 75 71 77 69 90 97 96 93 66 74 91 80 94 99 91 93 84 84 70 66 65 81 59 81
86 85 84 85 84 84 84 84 89 89 91 95 96 93 97 100 93 75 68 80 76 71 83 76 82 84 95 94 93 84 94 78 74 71 88 85 95 99 97 99 93 65 71 74 70 82 71
92 91 88 86 88 85 84 84 80 80 91 94 100 95 93 98 98 83 76 68 55 55 59 72 74 79 84 91 93 90 94 96 84 89 81 79 80 89 85 87 69 73 64 68 79 76 71

GFSGBSN_sfc_rhum_063.txt.gz
RH
58 57 62 66 69 68 68 68 72 79 79 79 79 78 77 75 77 78 82 84 82 76 76 76 78 78 77 67 40 36 62 76 66 33 21 20 24 24 24 19 20 22 18 19 17 21 25
65 66 60 63 68 69 69 70 73 78 78 80 82 82 79 77 75 76 82 83 83 82 78 74 76 75 78 60 22 41 42 47 36 25 23 20 18 20 21 20 20 22 20 20 22 21 31
61 62 64 65 68 65 66 72 74 75 77 79 80 82 83 79 78 78 81 83 84 82 79 73 74 70 80 48 33 36 44 39 34 26 26 23 20 22 23 26 24 24 26 23 21 21 29
71 66 66 66 70 70 70 70 70 70 72 74 76 82 86 87 86 85 86 86 85 81 79 78 77 76 80 41 50 54 49 40 35 29 32 24 23 22 22 24 25 25 28 28 19 36 40
64 70 65 65 70 72 70 71 73 73 76 77 80 85 87 88 88 88 88 87 82 77 80 82 79 76 65 43 55 44 43 34 32 30 30 24 25 26 27 26 30 33 28 28 22 27 39
65 64 67 66 64 65 65 61 72 76 78 81 81 84 87 87 88 89 90 86 76 78 72 67 64 54 45 22 30 38 49 39 28 34 34 34 30 30 32 26 27 33 33 32 28 29 35
67 65 64 68 62 61 66 60 67 76 78 78 80 82 87 88 88 89 88 75 66 65 67 73 68 48 41 49 42 38 43 42 32 35 44 39 39 38 28 31 27 28 29 28 25 22 26
66 64 68 67 57 62 64 61 66 73 76 77 80 85 87 88 88 89 82 75 76 74 90 59 64 62 54 49 66 40 34 39 38 32 38 40 46 35 30 30 28 29 30 30 27 27 27
68 71 68 65 59 60 65 62 56 73 75 78 84 85 86 89 89 80 84 82 55 60 89 63 52 57 50 46 54 40 34 37 35 40 37 38 32 32 31 34 33 33 33 34 28 30 28
70 68 67 65 59 60 58 57 68 71 74 80 81 83 86 88 82 84 74 63 62 66 93 62 62 58 39 43 54 32 24 31 38 36 40 31 29 34 33 34 30 37 31 30 31 29 34
71 69 69 67 65 65 68 71 71 74 75 76 81 84 86 84 88 85 68 75 65 88 77 28 47 31 38 34 26 41 26 28 31 38 40 39 40 36 35 30 30 26 32 33 32 34 39
67 64 66 69 68 71 69 71 75 74 75 77 80 82 84 87 95 82 79 77 82 96 74 44 35 46 49 43 37 38 34 27 27 39 40 31 34 30 25 32 29 28 31 38 43 42 52
67 68 66 70 71 71 66 66 72 73 75 75 80 83 83 81 88 75 78 80 89 89 44 37 40 33 36 40 46 39 40 38 34 50 54 38 34 30 31 33 33 30 35 45 53 59 51
67 72 69 71 72 68 66 68 73 75 75 75 81 82 84 90 89 81 83 91 95 48 62 43 41 40 40 36 38 37 41 37 32 31 37 44 46 34 31 34 36 36 32 50 54 56 43
65 64 70 68 67 65 68 68 71 73 76 78 82 94 95 92 91 94 96 95 64 54 54 61 49 43 46 37 38 37 41 38 28 37 38 42 38 27 31 30 30 40 42 33 54 66 58
65 62 66 69 71 70 68 68 69 69 73 78 98 97 94 91 93 96 95 80 60 58 55 56 62 54 55 48 48 43 45 39 39 35 34 42 47 34 28 27 28 32 32 42 51 54 59
65 64 65 68 69 73 66 69 68 69 73 79 97 96 82 91 93 99 98 88 60 44 43 60 64 63 57 53 45 56 50 34 36 47 35 39 39 40 36 34 34 34 37 42 40 51 49
66 66 66 67 67 73 68 68 68 70 77 80 94 99 91 94 99 99 98 88 60 49 49 53 57 62 59 50 47 46 53 48 40 35 48 39 51 55 40 31 28 29 34 38 50 54 60
70 76 68 67 68 72 71 67 70 74 78 96 100 94 94 95 97 96 99 84 63 55 53 58 61 64 56 56 53 53 50 42 42 37 42 62 54 56 46 38 34 34 32 39 48 53 48
65 67 67 66 67 72 71 67 70 74 76 94 100 99 96 98 91 89 92 89 79 63 58 54 65 60 57 61 51 51 46 40 49 44 70 71 68 60 54 55 53 46 37 33 37 59 49
69 69 68 68 68 70 69 67 70 76 80 94 99 98 94 98 92 96 80 74 75 71 58 57 60 62 59 62 59 52 43 46 38 58 54 69 76 73 67 58 58 56 49 40 37 38 44
68 72 73 71 73 72 68 71 76 79 80 98 100 99 97 90 91 92 98 77 71 66 61 67 72 65 64 68 58 55 55 50 50 50 54 53 74 76 67 57 53 56 49 43 38 38 38
72 74 75 74 72 70 70 75 79 80 81 98 98 94 94 76 89 99 96 76 70 62 62 50 60 65 69 60 56 55 55 55 54 59 61 64 79 76 64 72 59 66 53 45 43 39 40
82 82 80 79 77 76 77 78 79 80 82 96 97 97 98 91 88 85 81 76 69 63 70 61 56 65 56 53 57 61 65 63 62 62 55 65 84 87 78 74 66 51 48 42 48 42 40
88 89 88 85 82 81 80 80 80 79 81 97 97 98 97 95 79 91 82 77 66 65 69 68 62 64 55 61 77 77 68 66 73 64 64 63 67 95 85 68 54 36 47 56 60 48 66
87 85 84 82 89 83 82 82 82 86 84 95 97 93 98 87 82 67 89 72 77 88 86 79 68 63 59 87 90 84 81 59 62 75 69 69 71 91 94 91 76 52 51 55 60 56 64
81 83 82 82 84 89 87 86 86 87 88 94 97 92 96 100 81 73 78 93 68 74 84 78 75 78 68 96 92 89 81 60 65 82 74 88 91 95 98 87 66 54 55 59 53 50 57
83 82 86 85 84 84 87 90 90 89 89 94 96 92 97 100 91 73 68 80 74 71 86 81 90 90 96 93 89 82 84 68 64 57 73 80 84 88 85 95 84 52 58 59 56 58 61
90 90 90 91 87 86 85 81 79 80 91 92 99 94 89 98 98 88 80 66 56 55 67 74 71 75 78 83 84 79 84 85 67 64 69 65 73 79 76 75 60 62 63 63 68 71 68

GFSGBSN_sfc_rhum_066.txt.gz
RH
62 63 64 61 63 68 67 68 71 77 76 77 77 78 76 74 73 74 80 81 81 77 75 72 72 74 52 25 11 8 53 60 38 26 18 17 18 15 15 11 12 16 10 10 11 11 13
59 59 61 59 59 64 61 64 70 74 78 78 80 80 78 77 77 78 82 84 84 84 81 76 72 74 52 32 10 17 26 25 24 25 18 15 15 14 14 13 13 11 12 10 10 12 13
69 66 60 64 68 65 65 66 69 70 75 77 77 80 82 81 81 82 83 86 86 84 83 77 75 56 58 29 16 14 15 18 25 20 22 19 15 15 13 15 13 13 16 13 13 13 13
66 66 71 68 72 73 71 70 68 66 71 77 78 82 87 87 87 87 87 88 87 85 82 78 76 66 56 18 22 28 21 17 15 23 22 16 18 18 18 14 18 17 16 16 11 11 14
65 61 63 68 69 70 70 69 66 65 70 74 80 83 86 88 88 89 89 88 85 79 78 78 66 62 36 31 33 22 26 24 14 23 22 20 21 22 19 19 18 20 17 17 13 12 16
61 65 64 63 68 64 62 64 67 69 74 74 76 81 85 87 89 89 89 85 68 74 58 51 47 55 30 24 16 29 37 34 23 17 24 29 25 25 22 19 22 19 20 15 16 15 18
66 70 59 62 67 62 60 61 64 68 72 74 76 78 83 87 87 89 68 36 34 41 42 41 38 46 38 23 26 27 43 40 29 18 30 32 29 30 22 21 16 14 16 15 12 13 16
68 66 67 66 70 61 59 61 68 69 69 72 75 79 82 84 88 87 54 52 72 62 77 43 40 37 30 30 42 37 40 42 38 25 22 34 39 24 19 18 19 17 18 16 13 16 18
66 69 70 63 60 60 61 62 64 68 72 74 77 77 80 86 84 66 56 54 47 53 60 45 37 38 36 32 43 36 32 36 34 36 21 30 25 26 24 22 22 19 19 18 17 19 16
66 70 68 65 65 67 61 61 62 65 71 76 80 82 85 86 74 54 50 50 46 56 73 36 44 40 41 32 43 29 32 40 28 30 28 23 17 24 26 26 21 23 16 18 19 22 16
68 68 72 75 69 70 67 64 67 71 74 75 79 81 83 80 58 56 51 49 49 65 44 25 31 28 30 30 22 28 31 36 37 27 29 28 22 22 26 22 19 22 16 21 21 22 20
68 70 68 66 68 73 68 71 70 70 71 75 77 79 81 55 66 52 50 54 57 77 38 32 30 36 41 34 26 35 31 28 32 50 50 37 22 21 18 18 20 19 22 23 23 21 32
69 70 67 68 70 73 71 71 68 68 71 73 76 76 72 53 57 63 59 54 69 49 21 33 34 32 31 29 35 34 45 40 34 46 51 42 27 23 21 20 21 22 24 34 36 39 34
67 67 69 69 75 71 75 70 68 73 73 72 76 80 63 52 52 64 72 74 69 25 29 28 38 31 27 30 32 36 43 43 32 29 28 37 45 26 26 23 26 26 24 31 40 40 31
69 68 67 67 64 75 75 69 70 72 73 74 77 58 62 53 61 77 95 83 34 29 34 48 35 33 33 32 34 33 37 33 29 25 31 36 38 24 24 24 22 28 32 22 34 42 35
72 66 67 68 68 70 70 69 72 69 70 72 73 69 54 50 66 90 99 70 41 33 47 46 41 39 44 40 40 52 45 36 35 22 22 28 37 25 24 24 22 26 22 35 33 45 47
73 74 72 69 69 71 74 76 73 70 68 71 80 76 46 55 73 93 96 62 46 30 33 48 52 50 45 43 36 64 87 56 41 31 24 30 33 35 25 32 26 28 30 30 26 29 40
66 66 69 66 68 67 67 74 74 68 70 76 74 88 69 77 93 83 89 53 62 38 31 36 45 49 50 45 42 45 73 50 41 42 37 32 39 38 31 23 19 20 26 27 37 39 36
70 72 70 70 72 70 68 69 75 72 73 80 82 64 71 83 89 80 74 58 56 47 38 36 42 46 42 47 45 35 75 51 38 45 47 47 37 38 34 29 26 27 24 24 26 29 38
76 84 82 66 67 71 68 71 77 72 74 90 91 98 74 89 74 70 64 57 62 46 42 36 42 48 46 47 39 42 38 52 54 48 69 57 48 38 33 30 35 34 27 24 30 42 36
68 69 69 66 64 70 69 70 78 73 77 93 100 97 54 93 81 73 68 57 75 56 46 39 43 43 45 54 46 45 38 34 43 52 44 48 84 62 51 50 46 46 43 32 28 27 35
67 66 68 71 73 68 69 70 78 74 77 97 100 97 80 61 93 85 77 74 63 44 46 47 51 43 48 53 46 48 44 41 43 47 45 43 76 57 50 43 43 46 37 36 32 30 30
67 69 71 69 68 68 72 73 75 75 80 93 98 86 94 59 62 68 79 62 72 62 46 39 46 58 65 56 50 44 44 46 47 52 54 52 65 61 56 42 38 50 43 37 35 31 32
75 75 76 75 73 71 72 72 74 76 78 86 94 80 91 80 62 52 47 66 80 63 60 48 48 64 54 46 47 46 48 46 48 47 46 49 71 58 63 62 67 44 34 31 34 36 33
86 83 78 78 81 81 79 76 74 75 78 93 84 97 88 84 51 48 48 50 51 69 56 60 57 66 70 71 68 61 62 63 55 49 45 47 54 78 61 54 38 28 37 37 35 49 38
88 89 85 84 88 89 87 83 78 77 78 91 93 91 97 87 57 39 47 46 64 58 72 85 83 81 86 70 67 66 66 48 54 69 46 44 49 61 76 62 51 33 43 42 45 37 31
84 83 80 84 90 90 85 89 83 80 79 88 97 92 96 98 66 46 50 52 50 69 62 70 92 98 94 81 80 68 58 48 52 80 87 74 69 72 73 69 44 33 43 46 42 46 39
84 83 82 80 82 81 85 89 88 82 82 91 96 93 97 99 69 64 48 50 53 73 86 80 96 97 98 88 70 62 66 46 48 47 62 63 65 73 63 73 78 45 36 42 53 44 48
86 87 86 87 89 88 84 84 89 89 89 90 99 94 86 97 84 68 53 47 44 50 67 78 57 66 69 68 61 54 62 73 46 53 40 59 46 54 48 51 51 48 47 56 59 61 60

GFSGBSN_sfc_rhum_069.txt.gz
RH
60 62 61 64 61 61 62 61 66 71 73 74 76 74 75 73 74 77 82 84 85 82 80 78 76 74 50 29 20 7 47 52 29 26 23 16 17 16 16 10 9 11 9 8 8 7 8
65 65 62 60 60 64 62 63 65 69 72 76 80 78 76 77 78 79 83 84 85 86 84 80 78 76 45 45 16 8 9 8 12 23 21 16 14 13 13 12 11 10 9 10 8 8 8
63 66 71 72 64 66 66 67 66 64 67 71 76 82 81 80 80 81 83 86 86 86 85 81 78 53 41 31 15 11 8 9 7 11 20 16 13 13 14 15 11 10 11 10 10 8 8
65 61 64 65 70 70 69 67 69 62 64 70 72 77 85 86 86 87 87 87 87 85 84 79 78 47 37 16 14 15 13 13 11 8 10 15 16 18 16 12 12 14 13 15 10 9 9
67 64 61 64 66 69 68 65 64 68 65 68 73 77 84 86 87 88 88 87 84 84 78 74 60 47 31 28 20 14 14 16 18 17 10 12 16 21 20 20 18 17 17 16 13 9 10
62 66 69 66 63 64 69 64 65 67 68 67 72 75 80 85 86 86 87 87 65 69 62 38 34 47 32 19 16 15 24 28 27 25 15 19 21 23 21 21 25 19 16 15 15 11 11
62 61 64 66 60 63 68 62 62 72 66 66 68 72 77 82 84 83 70 34 28 43 31 25 24 30 19 14 19 19 20 28 34 37 45 15 23 27 24 22 18 15 14 14 13 10 13
66 64 68 69 66 67 67 63 66 71 68 65 71 74 74 81 83 80 62 38 48 50 66 34 29 27 22 19 22 21 29 38 45 55 40 15 23 19 18 19 19 17 16 16 13 10 13
65 69 65 65 68 64 59 60 65 67 68 70 74 75 75 82 80 66 41 42 34 41 51 28 25 25 24 23 27 22 28 39 52 60 59 33 16 19 21 21 21 20 21 18 16 12 14
69 70 68 66 68 67 68 68 64 64 70 74 75 76 83 83 69 47 38 35 35 46 57 25 24 27 28 28 32 18 18 36 57 61 58 40 19 22 26 26 20 24 16 16 15 17 20
70 71 70 68 70 75 73 72 64 63 67 72 76 76 81 77 50 39 35 35 41 56 35 18 24 22 25 27 20 23 19 34 53 62 58 61 34 23 27 26 20 24 17 16 17 19 20
73 71 70 70 71 71 72 73 72 69 70 69 74 75 76 48 52 43 36 45 50 77 33 21 21 26 32 26 26 26 23 26 36 61 62 51 35 37 22 17 19 16 19 19 20 22 31
67 66 67 68 69 72 69 73 76 71 67 67 73 74 67 42 52 46 48 60 56 44 10 15 24 24 22 20 24 25 37 44 60 89 76 54 46 33 29 20 21 18 23 32 37 36 37
66 67 73 73 71 74 74 77 73 71 72 69 73 77 57 39 45 48 54 60 57 14 16 11 20 20 15 14 26 30 37 41 44 51 63 82 71 36 25 21 23 22 23 33 46 45 30
66 67 68 71 66 67 70 70 70 72 72 71 74 48 49 49 47 59 80 74 29 18 12 20 24 17 16 22 28 29 35 39 40 38 73 54 50 31 36 22 22 25 27 19 28 35 37
63 66 69 76 72 72 71 69 69 68 67 73 48 50 50 49 50 78 93 62 29 20 28 28 26 17 26 24 33 39 39 46 51 39 37 48 50 33 42 27 25 29 19 31 26 50 53
63 64 67 72 74 80 76 72 70 73 65 73 52 72 38 42 61 92 94 52 34 22 21 32 28 25 28 30 30 50 61 61 60 52 41 31 35 44 33 44 35 30 28 27 25 29 41
64 66 68 70 71 67 67 65 71 77 71 72 52 91 52 51 95 76 85 48 40 30 24 26 27 31 34 32 35 37 85 52 57 53 53 29 36 50 38 27 28 27 27 28 38 38 32
69 68 68 70 71 72 71 72 69 73 73 44 80 54 52 76 92 76 54 39 34 33 30 29 29 26 28 34 43 32 53 60 56 55 57 68 45 49 49 40 24 33 29 25 28 34 60
67 68 70 75 75 73 77 76 76 74 70 67 93 96 55 81 66 59 54 52 42 35 33 29 33 25 29 42 40 38 37 49 50 55 68 56 57 53 49 41 28 33 26 23 28 43 38
64 67 68 70 74 75 72 75 72 75 73 75 93 86 57 85 70 55 52 53 43 36 35 28 34 32 39 50 47 42 34 32 33 58 55 53 88 70 37 44 33 31 28 25 26 28 35
69 68 68 65 69 70 72 67 74 72 75 90 98 69 52 54 48 54 52 53 48 35 36 41 38 29 32 36 36 38 32 37 44 39 54 57 81 95 62 35 37 37 30 29 27 29 28
68 72 72 69 68 70 72 68 73 74 79 93 79 56 74 62 53 66 64 43 41 39 36 38 38 33 36 39 44 44 41 43 40 46 51 53 76 91 90 59 47 56 41 37 38 31 32
74 74 74 73 71 69 70 72 74 77 80 79 70 60 85 75 57 44 40 62 52 45 58 54 34 43 45 46 44 42 42 40 42 44 42 52 63 67 92 77 81 53 30 30 39 36 29
81 82 85 85 80 78 77 75 74 76 78 89 56 86 78 82 39 38 41 44 45 50 63 60 49 48 58 63 70 61 56 55 53 42 42 43 53 72 79 79 72 36 40 43 54 47 29
82 80 84 88 86 85 83 80 80 76 76 71 66 72 92 99 57 30 35 35 50 58 74 61 77 70 83 94 89 71 65 50 49 44 37 38 46 63 69 87 77 47 37 37 30 62 28
86 85 83 83 82 88 87 86 83 81 77 70 62 73 89 100 50 61 54 46 36 45 64 56 82 92 89 87 87 66 59 37 54 75 59 57 58 64 68 60 39 32 34 36 52 70 36
86 85 86 84 85 83 89 88 89 86 80 83 72 71 88 100 62 47 45 57 45 50 89 78 86 97 99 98 79 61 64 51 43 43 56 54 61 64 56 60 62 36 33 48 53 43 44
85 86 87 86 87 85 85 88 92 87 85 81 80 76 76 91 92 62 43 38 49 59 80 85 78 93 79 72 69 63 61 66 41 51 41 55 39 49 41 46 43 42 53 48 49 50 50

GFSGBSN_sfc_rhum_075.txt.gz
RH
62 62 69 72 69 65 62 64 69 74 74 74 73 72 73 72 72 75 81 83 83 78 76 76 76 77 78 52 39 26 68 65 57 35 32 32 27 24 29 24 25 24 19 15 13 12 12
69 69 63 64 67 68 71 69 69 74 74 73 74 75 73 73 73 74 80 82 81 80 80 77 77 78 82 65 19 15 16 18 14 15 16 26 29 22 26 25 23 20 19 16 14 12 11
66 69 71 68 68 67 68 72 73 70 70 69 71 74 72 73 75 76 80 82 80 79 79 75 78 73 78 64 23 26 22 21 19 19 15 12 14 20 28 30 20 20 24 19 16 14 13
63 65 66 68 73 75 73 70 71 72 67 65 66 73 75 78 80 83 82 79 78 78 76 75 79 79 81 36 35 32 23 22 19 20 21 14 13 17 30 29 28 30 24 28 19 16 14
63 63 64 65 70 72 73 72 72 72 66 66 70 74 74 78 82 83 81 79 77 73 75 79 88 90 75 34 36 28 23 21 20 20 20 12 18 21 35 43 43 36 38 32 22 14 14
62 63 62 65 63 69 70 71 74 73 72 70 71 72 75 79 81 81 80 78 67 72 61 51 53 80 59 37 18 15 18 26 34 28 28 29 28 27 46 52 56 45 38 30 24 17 15
67 68 65 64 67 66 63 66 73 76 75 69 68 70 76 79 80 80 80 66 53 60 47 53 52 59 42 25 17 17 15 26 34 40 50 37 34 36 33 40 37 35 34 34 23 16 18
67 66 67 68 67 66 64 64 70 76 74 70 72 72 76 79 81 80 77 77 47 48 70 45 42 40 32 26 29 23 17 30 42 54 47 51 47 35 29 31 32 35 35 34 26 21 21
64 66 68 71 70 70 66 66 69 75 76 73 75 73 74 82 81 79 65 61 42 47 82 51 34 34 32 28 32 29 23 23 43 49 50 58 48 43 46 31 38 38 38 31 29 23 23
71 72 74 72 73 72 70 70 71 70 70 75 75 78 80 83 80 66 57 38 45 54 89 49 34 23 24 27 35 22 21 22 54 58 66 81 63 61 64 46 36 52 38 31 27 32 60
60 62 66 71 72 72 72 72 72 69 67 74 75 78 78 77 84 72 51 49 48 64 97 32 28 20 25 32 27 24 20 23 54 56 69 62 73 68 77 53 37 45 42 42 49 64 62
61 62 65 66 68 69 69 70 71 71 70 72 76 76 75 74 78 64 48 53 72 91 86 32 29 30 31 31 30 27 26 30 38 53 55 57 46 64 68 48 41 49 57 49 60 64 85
64 62 64 67 68 69 70 71 73 74 74 74 75 74 72 64 79 52 48 69 94 89 29 21 37 33 36 31 33 36 33 45 62 76 76 55 55 50 58 65 51 54 67 89 91 94 90
64 64 63 62 64 66 68 69 73 71 71 73 77 76 76 63 66 53 66 94 95 45 26 16 20 21 23 20 20 29 37 49 45 53 67 76 82 60 53 66 64 54 86 84 92 89 58
60 61 61 63 64 65 66 69 72 76 76 76 81 80 78 72 68 68 96 97 68 34 23 24 21 20 26 20 21 30 44 48 40 40 69 72 67 52 49 53 62 74 95 62 82 61 91
62 63 66 67 67 66 66 68 74 75 72 72 94 92 82 64 71 85 99 83 56 35 32 34 34 27 31 21 28 34 54 73 62 48 49 64 87 51 47 63 68 69 55 82 98 93 93
62 64 68 67 67 68 67 68 71 72 74 77 95 100 70 60 82 94 97 80 55 41 39 37 34 32 33 35 36 31 69 82 60 52 49 54 87 68 70 92 92 84 92 90 86 88 79
62 66 67 68 68 69 70 69 69 72 71 84 98 99 67 64 94 98 89 64 56 49 41 42 38 34 37 38 39 38 49 69 57 55 73 79 94 90 62 49 56 60 87 84 98 82 65
67 69 70 68 67 68 70 71 72 70 74 96 100 93 65 86 98 92 78 64 58 56 51 42 40 35 34 37 44 39 59 58 59 64 72 72 94 95 64 50 39 69 74 73 83 84 93
70 69 70 70 68 67 68 69 72 70 76 97 100 97 83 98 99 88 79 70 63 46 46 38 37 34 37 43 39 41 47 63 62 63 74 73 75 80 88 85 95 98 88 69 79 98 81
65 64 66 67 69 68 71 71 72 71 74 96 100 97 88 99 96 97 84 92 76 59 42 38 43 36 40 48 48 52 44 68 59 70 73 83 96 80 76 64 73 74 81 92 76 84 96
64 66 66 69 70 71 70 71 71 74 82 100 100 95 82 98 90 99 73 69 72 65 68 60 48 40 48 47 41 46 51 58 62 77 74 78 93 87 78 56 73 82 80 87 86 72 78
66 67 69 70 70 71 72 73 71 72 86 100 95 80 90 78 70 95 97 78 58 48 46 46 74 77 76 65 68 62 65 66 63 70 94 81 85 92 94 76 87 99 85 88 77 74 75
67 68 69 70 70 72 71 74 75 71 77 96 94 90 94 92 74 61 52 56 96 71 64 48 53 70 73 66 65 60 59 52 70 72 64 70 82 89 97 91 98 72 56 66 79 78 67
72 73 72 76 79 79 78 79 79 77 73 97 91 97 96 97 66 58 54 47 53 67 72 62 54 88 80 73 90 88 73 70 64 54 65 61 78 93 94 95 75 68 86 84 81 91 81
73 73 74 75 79 82 83 86 82 79 73 92 88 92 97 99 83 49 77 66 79 74 74 69 88 86 84 91 95 85 86 68 67 58 45 50 68 81 93 96 97 75 78 63 65 98 77
77 75 76 78 83 85 85 86 86 82 76 86 95 88 96 99 78 68 81 89 86 92 90 72 91 88 86 94 99 97 92 51 70 74 74 70 76 91 93 94 80 63 67 59 95 98 86
81 80 82 84 86 86 87 85 85 84 81 84 88 89 92 99 80 68 63 74 76 83 99 98 95 93 90 96 95 83 92 74 80 94 67 70 93 94 88 89 84 66 77 95 90 82 65
82 86 86 87 85 86 87 86 85 86 86 82 92 76 87 95 87 71 67 65 69 69 89 99 98 98 89 86 91 97 98 94 76 97 73 81 70 81 70 76 73 70 83 63 58 63 63

GFSGBSN_sfc_rhum_078.txt.gz
RH
69 67 61 63 65 70 70 70 70 73 73 71 69 68 67 67 68 72 78 80 80 75 73 71 72 75 83 71 57 30 54 54 58 46 42 40 33 24 29 29 29 35 30 26 24 20 18
65 67 73 68 66 67 65 66 72 74 73 71 73 72 69 66 65 69 75 79 80 79 75 71 70 72 93 77 26 21 22 23 47 34 26 27 35 29 28 32 32 29 26 25 23 21 18
62 64 66 68 71 73 69 68 67 68 73 69 69 73 72 68 68 71 75 79 79 78 74 70 70 68 77 72 37 28 35 32 25 24 26 21 17 20 26 34 32 30 33 26 24 23 22
63 62 62 65 67 70 72 72 68 66 72 68 66 73 78 76 77 79 80 79 78 77 74 70 72 76 84 43 48 43 42 30 25 23 25 24 20 20 24 31 34 37 39 42 28 23 20
64 62 62 63 66 67 70 72 72 70 73 70 69 73 78 78 80 80 80 79 78 75 71 72 90 95 85 50 51 38 33 31 26 23 27 19 24 24 26 47 53 48 46 42 33 23 22
65 66 67 64 64 67 66 66 71 74 73 72 69 71 75 78 79 80 80 77 72 75 68 64 64 91 67 40 28 18 24 27 32 40 31 29 31 32 48 57 59 53 49 46 40 28 20
67 65 65 65 68 66 65 64 66 74 73 74 70 69 72 78 78 79 77 81 59 59 54 62 65 65 54 40 28 24 20 20 38 45 53 42 44 50 34 42 46 44 46 46 38 29 30
66 66 66 66 67 70 68 67 67 71 72 74 73 70 70 74 78 78 84 78 57 58 78 50 49 47 41 35 45 34 26 26 45 58 55 61 58 40 31 35 38 41 46 44 36 28 26
65 70 70 71 70 72 72 69 70 71 71 72 73 71 72 78 78 80 67 64 48 57 79 58 42 42 41 40 44 31 29 29 45 55 56 64 54 41 38 54 62 46 45 45 43 38 31
66 61 63 66 70 71 71 71 70 70 71 74 76 78 79 82 73 80 63 47 50 61 98 58 48 40 34 34 42 28 27 24 39 54 66 71 68 64 71 68 58 75 36 38 46 53 66
64 61 62 65 66 69 70 70 69 70 71 72 76 74 80 76 95 90 60 52 49 75 75 28 34 24 29 33 32 30 24 30 62 61 64 63 68 74 76 73 61 66 38 45 56 66 77
68 65 63 63 67 69 69 69 71 73 73 73 74 74 78 81 87 81 60 56 80 86 81 37 33 30 40 36 33 27 26 32 44 63 64 58 56 63 65 60 56 44 56 54 59 72 87
61 64 64 64 63 64 66 67 69 71 74 72 73 77 80 72 93 74 70 83 95 89 32 33 41 34 40 40 36 31 35 54 60 71 76 62 59 55 60 71 58 62 70 88 91 93 82
63 62 65 62 61 65 65 66 68 71 75 75 74 82 81 71 84 83 86 96 89 44 44 30 35 34 42 36 37 38 42 52 52 57 73 81 79 65 63 64 74 78 84 98 90 96 74
62 57 62 65 69 67 66 66 68 71 74 75 78 95 94 84 81 88 98 97 67 52 36 50 40 29 37 20 26 43 46 50 49 50 66 76 73 58 57 58 62 90 97 72 98 96 96
59 59 62 63 68 67 67 68 67 70 73 73 95 92 76 72 84 92 100 84 64 42 43 46 58 40 44 37 39 39 62 78 68 54 52 68 83 58 64 60 64 79 79 98 99 96 96
59 58 62 67 67 67 68 70 69 70 73 76 97 97 72 75 91 99 95 77 54 42 39 53 61 57 42 44 40 43 75 78 63 59 57 74 81 76 77 84 83 93 95 93 86 90 98
60 63 67 68 69 68 67 68 69 72 74 82 97 98 79 89 98 97 90 65 55 48 46 47 50 53 47 43 44 41 59 71 63 62 73 86 84 90 77 53 65 78 94 85 93 95 83
60 65 69 69 68 68 67 68 69 72 75 95 99 93 77 85 98 96 85 67 58 57 53 51 60 48 43 48 46 47 70 68 62 69 79 77 85 84 74 62 69 73 73 78 92 90 98
64 68 69 68 70 70 68 67 68 70 76 96 99 99 96 98 98 94 88 77 74 55 58 49 44 48 51 50 47 48 61 70 65 77 71 74 84 88 90 80 85 100 95 93 95 99 85
68 65 63 61 61 66 70 70 70 74 76 98 100 96 84 97 98 88 86 90 85 70 51 50 52 55 55 56 48 50 52 77 70 75 81 86 90 90 80 70 66 64 84 76 91 94 92
61 62 64 65 68 70 70 74 72 73 77 99 99 98 89 99 99 98 98 86 91 70 92 74 73 60 68 70 64 71 59 65 71 82 83 86 93 90 88 62 62 78 76 67 67 86 84
66 68 69 69 69 70 70 72 74 75 82 99 98 94 99 81 75 88 92 92 97 99 83 64 73 83 79 73 77 71 68 65 69 87 86 95 99 95 94 73 73 92 81 71 64 74 77
65 66 67 69 70 70 71 75 76 78 82 94 96 97 99 91 72 68 59 54 91 92 96 70 74 74 70 71 69 66 65 63 67 73 83 95 95 94 97 91 97 81 61 78 92 89 71
68 71 72 74 73 75 74 77 81 81 79 96 86 96 99 99 74 66 64 68 64 69 70 70 74 80 79 75 83 78 77 73 67 66 77 74 87 95 91 95 66 68 89 91 97 96 86
69 70 73 72 75 77 78 79 80 87 80 96 98 95 98 99 86 68 78 81 96 96 86 73 93 89 81 92 88 86 86 71 70 65 57 69 77 85 98 93 84 84 69 70 81 100 88
70 72 74 75 76 79 80 82 84 84 82 93 85 92 94 100 84 77 84 86 85 93 92 95 87 92 84 96 98 97 94 64 76 75 77 88 93 90 89 91 79 58 74 79 99 99 82
74 76 78 79 80 82 83 85 84 83 80 90 79 94 92 96 88 72 72 84 84 87 97 91 93 95 91 97 95 88 96 80 83 79 84 79 90 90 94 93 84 69 77 96 96 91 86
80 81 82 82 84 85 87 87 85 85 83 82 87 88 94 94 88 82 72 68 68 70 89 99 99 99 99 91 94 93 98 98 87 95 88 98 73 88 73 79 84 82 92 86 80 83 74

GFSGBSN_sfc_rhum_081.txt.gz
RH
68 71 71 64 65 67 66 65 68 74 74 72 71 69 67 67 68 68 73 77 75 73 72 72 70 70 77 82 63 31 50 38 56 59 60 45 34 28 28 29 32 41 40 34 31 30 28
62 66 68 71 71 71 70 68 68 69 71 74 71 69 69 69 70 68 71 76 79 78 73 71 68 70 72 91 28 26 26 28 31 54 49 38 40 32 29 32 31 31 31 31 29 30 28
60 63 64 67 67 67 67 74 71 69 68 74 70 72 71 70 70 70 74 77 78 78 74 71 70 66 76 78 46 41 40 35 27 26 26 22 19 23 28 27 30 35 41 37 33 32 31
65 63 62 64 66 67 66 72 73 73 71 74 71 71 77 76 77 78 78 78 78 78 77 74 71 72 85 50 55 52 49 42 36 32 27 26 24 24 23 24 32 43 44 51 36 30 28
62 63 64 64 65 68 69 68 68 67 74 75 73 73 77 78 79 79 78 76 78 78 75 70 84 85 84 51 59 47 39 32 28 28 26 20 24 27 29 38 50 57 51 49 42 27 28
68 66 66 66 68 68 67 67 70 69 71 72 74 73 75 77 78 78 77 77 77 76 68 68 70 90 66 41 38 29 38 32 33 41 37 30 35 36 52 54 57 62 58 60 53 33 34
69 67 66 65 65 67 70 68 68 70 72 72 74 74 71 75 75 78 78 81 66 70 68 65 68 73 56 42 32 27 24 24 33 45 51 45 42 48 38 46 44 51 52 53 49 38 38
63 63 66 67 67 68 71 71 71 72 72 71 71 72 72 75 78 79 68 74 61 67 94 64 61 57 48 41 49 37 27 26 48 59 57 64 62 44 36 35 36 43 50 51 43 36 36
66 66 61 64 68 69 69 70 71 70 71 71 72 72 74 79 82 77 78 66 52 56 97 64 46 44 47 45 53 39 32 31 47 58 60 70 59 49 45 43 49 52 64 53 50 44 39
65 58 60 63 64 67 70 70 69 69 70 71 74 73 79 81 71 91 71 59 52 57 96 61 55 49 37 43 54 28 24 29 36 53 58 68 62 65 65 69 65 78 56 52 44 60 68
66 59 61 62 62 68 69 69 68 70 71 73 74 74 80 75 95 93 66 64 60 80 71 25 40 32 37 37 36 36 29 31 43 66 63 66 70 74 75 70 65 69 62 55 61 72 74
62 65 65 63 62 63 64 66 67 69 70 74 73 73 76 82 94 85 79 75 82 92 76 39 36 42 44 41 38 30 32 34 50 66 68 60 62 64 64 61 59 60 60 63 65 75 90
60 59 61 65 62 61 64 66 67 68 70 72 76 74 81 78 92 86 84 93 94 96 32 36 42 40 43 49 43 33 42 57 70 79 83 67 67 64 64 75 66 69 78 96 95 95 81
58 64 58 59 63 68 65 66 66 68 71 73 76 79 84 77 90 86 94 96 92 38 44 34 44 44 47 44 45 40 41 52 61 61 78 80 72 65 66 68 74 83 84 94 90 95 85
63 61 54 62 62 67 67 67 68 68 69 74 77 95 96 93 88 89 97 96 63 53 45 53 44 60 60 52 40 44 46 42 53 56 58 78 73 61 66 62 63 78 94 76 99 88 97
67 61 58 62 64 68 67 67 69 70 69 74 95 88 93 86 88 95 99 77 72 48 47 46 61 82 85 73 47 48 56 78 69 52 53 69 76 60 70 64 65 75 80 99 93 96 93
65 57 58 58 67 68 67 67 69 69 73 75 97 96 77 88 91 98 97 69 61 42 47 59 66 88 91 86 48 46 78 83 67 64 60 75 71 74 78 78 80 85 84 97 95 91 96
62 59 59 67 67 68 68 67 67 69 74 82 97 100 77 93 99 99 92 69 54 53 54 57 54 54 88 92 65 51 76 80 73 69 81 89 80 83 80 63 70 79 79 88 99 99 94
55 58 61 67 70 69 69 69 68 68 71 97 99 88 82 90 98 95 85 74 63 62 56 54 56 58 81 94 93 54 76 72 70 68 83 81 76 88 59 74 86 84 83 84 95 96 89
59 60 65 70 66 66 67 68 68 68 72 95 99 97 92 97 96 92 84 77 85 57 62 60 58 48 49 88 75 56 58 71 72 76 72 71 85 82 77 75 89 90 79 78 96 99 96
63 67 68 63 61 61 62 67 70 76 72 95 100 95 89 98 96 95 89 88 76 68 59 52 61 67 68 93 79 50 64 76 73 75 86 81 87 91 84 78 75 77 74 68 73 81 93
64 63 62 62 64 66 69 70 74 68 75 97 100 100 94 98 84 97 92 97 95 73 96 74 73 65 72 93 66 74 64 72 79 84 88 90 90 92 89 68 67 74 55 60 69 74 70
65 68 69 72 69 68 68 71 76 77 81 99 98 91 100 84 81 91 91 93 93 100 92 71 78 92 89 73 77 73 72 73 77 86 91 86 93 97 94 71 75 85 80 73 74 71 66
64 63 64 65 66 69 71 73 77 78 80 96 98 99 100 94 75 67 72 74 96 99 100 98 86 91 68 73 70 69 66 69 73 75 81 88 92 96 98 88 85 60 71 83 85 83 81
67 65 67 71 72 74 76 78 78 80 77 95 83 98 99 99 86 74 66 69 71 80 94 79 94 86 87 78 78 72 75 67 66 70 89 81 92 94 98 97 64 50 80 93 99 94 84
67 65 69 69 73 74 76 76 77 80 82 96 79 91 98 100 84 77 83 80 89 94 94 90 72 84 81 89 84 79 85 70 68 64 65 84 83 89 96 97 86 71 67 72 80 99 94
68 70 70 70 74 76 77 77 79 80 84 96 89 89 97 98 87 77 86 87 83 90 92 95 82 92 85 95 95 94 83 69 80 69 80 96 97 92 87 94 77 59 79 74 99 100 92
68 70 72 75 79 79 80 81 82 83 83 96 89 94 93 98 92 75 69 84 84 90 98 86 90 91 94 94 95 90 97 82 88 75 77 83 96 94 93 94 83 86 75 98 95 92 89
74 75 78 81 83 83 82 83 84 84 83 85 91 86 93 95 87 81 76 73 72 70 85 91 96 95 100 99 94 85 96 98 95 95 85 95 79 89 76 93 91 88 93 92 85 88 86

GFSGBSN_sfc_rhum_084.txt.gz
RH
65 67 73 73 70 71 70 68 70 70 70 71 75 72 70 70 69 69 73 76 74 71 71 70 70 69 79 86 66 36 48 40 54 63 56 52 36 28 27 27 33 47 46 40 36 34 34
61 64 67 69 70 68 67 72 74 72 71 72 75 73 72 71 70 69 72 76 78 76 73 72 70 69 87 77 34 32 38 35 31 62 53 53 42 31 31 30 31 31 34 32 32 32 33
61 62 62 65 66 68 66 71 73 73 76 76 74 73 74 73 72 69 71 77 77 77 76 75 75 70 83 64 46 47 52 46 33 44 39 26 25 23 27 27 29 36 46 42 40 37 36
68 64 61 62 64 68 69 71 69 68 69 72 75 76 79 77 76 77 76 74 78 78 79 78 76 76 88 46 53 57 56 50 44 37 32 28 25 29 25 24 30 43 48 56 38 38 33
64 64 64 68 68 68 68 68 68 68 71 71 71 74 79 80 80 79 77 78 74 76 74 74 80 86 85 48 57 50 48 41 35 38 35 22 28 33 30 39 40 54 54 55 44 34 34
71 70 68 66 65 65 72 69 70 70 72 72 70 72 74 79 80 80 80 69 70 75 71 70 66 88 61 41 42 35 42 39 33 38 35 35 38 39 47 42 48 52 57 70 63 41 44
68 66 63 64 65 65 67 73 74 73 73 71 71 72 72 74 76 81 69 76 74 73 70 74 68 78 68 47 36 32 30 29 31 45 51 39 45 53 43 49 42 48 55 55 50 41 44
63 64 66 66 67 68 68 69 71 71 70 70 71 72 72 72 74 77 74 76 66 66 92 67 68 65 50 43 52 40 33 33 47 58 52 61 58 42 36 37 39 42 46 49 45 39 41
68 66 61 62 64 67 70 70 70 70 70 70 71 74 74 78 77 78 92 74 65 60 96 72 54 54 55 54 63 47 35 32 42 57 62 66 58 52 47 50 50 53 60 65 64 56 45
69 62 60 61 62 65 67 68 68 68 70 71 75 74 77 81 74 96 70 64 68 75 95 68 58 56 43 48 65 38 30 32 38 55 60 67 55 59 58 56 53 81 62 64 63 66 77
69 62 62 61 61 63 64 66 67 68 69 70 75 74 75 76 95 94 67 74 68 88 90 26 39 36 42 51 37 39 30 31 41 56 60 63 77 79 77 69 64 73 69 73 72 78 75
62 61 62 62 63 63 62 64 66 67 69 70 72 75 75 84 96 88 84 82 87 85 73 42 34 35 43 47 46 37 39 41 46 70 70 56 64 62 56 62 62 62 70 69 66 62 89
62 58 58 63 62 62 62 65 66 67 68 70 73 77 83 84 93 89 86 92 88 95 37 30 50 42 42 42 46 39 50 68 69 77 79 68 70 65 64 70 70 73 86 92 94 91 88
55 61 59 55 61 67 68 68 68 68 68 70 75 77 87 84 93 88 92 92 88 36 50 41 46 48 60 73 56 43 52 62 64 60 82 80 68 67 67 64 72 86 86 81 93 92 87
56 62 55 58 62 62 67 66 67 69 70 73 76 94 96 93 91 92 93 87 59 64 55 57 51 74 68 72 89 54 50 54 53 58 61 74 72 69 69 68 65 80 92 80 94 85 93
66 68 56 56 57 67 67 67 67 69 71 75 97 98 95 86 92 94 97 75 69 55 50 54 68 77 86 80 90 78 66 68 65 57 58 68 76 67 76 68 71 74 83 99 98 99 96
61 61 52 58 58 67 68 68 67 67 71 75 96 97 73 89 92 96 99 80 66 48 50 61 68 71 72 81 91 91 67 86 71 71 66 69 67 75 78 84 88 90 90 96 95 98 98
56 59 55 58 67 67 68 67 67 68 71 82 96 99 80 94 98 99 100 73 56 63 56 58 65 65 69 77 78 95 99 92 83 77 89 86 79 88 75 64 74 80 80 72 99 95 95
58 57 55 59 65 70 67 69 69 68 71 97 97 96 86 89 100 100 86 74 66 75 64 61 61 52 87 72 89 89 99 85 84 83 86 81 82 78 53 72 88 90 82 93 96 98 97
57 58 59 63 70 66 64 63 66 68 71 94 99 96 91 96 97 94 93 80 75 69 72 62 62 63 64 68 69 84 93 89 77 75 73 67 87 68 64 70 85 96 75 71 84 99 88
57 59 66 71 64 61 60 62 63 70 66 94 99 95 89 99 95 97 93 95 85 81 62 58 65 68 66 82 86 91 95 92 79 74 86 73 82 91 86 77 79 77 78 75 82 74 84
63 64 66 64 62 62 64 68 70 69 71 97 99 89 95 99 95 96 88 89 88 86 96 79 77 63 63 94 77 96 89 68 77 82 90 90 94 94 91 72 67 79 62 56 58 59 69
58 62 66 70 69 71 69 69 73 70 83 98 97 88 98 86 91 95 92 88 94 97 82 80 76 93 93 79 66 71 78 77 76 87 91 89 95 97 96 73 80 72 71 76 71 68 68
65 68 64 63 65 65 67 71 74 76 82 93 93 91 96 93 90 74 66 67 89 95 99 98 83 93 83 87 81 80 83 77 79 80 81 88 85 95 97 85 85 50 84 86 88 79 62
71 68 65 64 66 70 73 78 80 74 73 94 96 97 94 97 90 73 69 76 78 90 98 99 99 91 92 96 82 73 75 71 68 78 93 84 92 94 97 96 67 56 86 84 94 81 80
70 70 67 65 70 72 75 76 78 78 78 94 85 90 97 99 80 72 85 73 81 95 83 84 65 81 87 88 85 79 85 73 67 62 78 91 84 87 93 94 89 54 82 76 83 97 95
66 70 66 70 70 71 73 76 78 77 79 94 98 86 96 96 88 82 84 87 86 85 93 86 77 94 85 95 96 95 83 73 75 67 81 96 88 88 91 85 81 76 88 75 97 99 99
71 69 69 69 72 74 76 79 79 80 82 96 96 83 92 98 93 81 79 86 82 87 98 81 84 83 95 94 94 95 96 84 92 77 76 82 93 84 86 94 89 90 84 88 98 98 100
68 69 72 74 76 80 79 80 80 81 84 88 98 84 89 97 87 87 85 78 73 74 85 90 92 98 100 99 96 79 86 96 95 97 81 97 98 99 83 94 95 95 96 95 95 99 98

GFSGBSN_sfc_rhum_087.txt.gz
RH
68 68 71 73 73 69 68 71 72 73 73 72 76 74 72 71 70 69 71 74 69 68 70 72 72 71 71 56 31 29 45 42 42 53 41 44 29 25 26 25 27 42 38 33 31 28 27
65 66 67 69 68 67 65 68 71 73 76 77 75 75 75 71 70 70 69 75 74 72 73 74 74 70 80 54 21 29 41 38 23 56 47 47 38 26 25 23 24 24 26 27 26 26 25
66 66 64 65 65 67 67 72 68 68 69 69 68 70 72 74 73 72 70 75 75 78 76 79 78 68 81 61 30 32 40 41 31 28 45 40 35 23 26 24 24 26 29 31 33 28 29
68 67 63 65 66 66 67 68 68 68 70 69 69 70 74 75 75 74 76 78 78 73 77 76 77 70 82 45 44 49 48 48 44 40 30 27 23 23 24 22 25 29 33 33 29 32 30
68 66 66 73 69 66 70 70 69 70 71 70 69 69 71 75 77 78 79 80 75 72 75 76 77 83 77 44 53 42 48 48 34 41 34 24 26 30 24 30 28 37 28 42 33 29 29
72 73 70 67 65 63 66 76 76 73 72 70 69 70 71 73 77 79 81 75 69 73 60 68 65 78 51 54 43 37 41 43 37 38 34 34 32 34 34 29 28 28 37 42 37 33 29
72 68 66 65 64 64 65 69 72 72 70 70 70 70 73 73 76 80 74 64 62 60 59 62 54 59 46 28 31 33 32 33 29 40 34 35 40 42 35 33 25 37 42 42 36 28 29
66 67 67 66 68 69 69 70 70 70 69 69 70 73 74 74 76 75 72 70 67 69 92 62 61 57 48 41 52 33 28 36 39 47 46 49 46 37 34 35 36 33 34 36 36 32 38
68 68 65 63 63 63 65 66 66 67 68 69 72 73 75 76 73 80 78 68 61 70 94 71 55 53 51 54 63 50 34 31 36 50 52 53 47 43 35 37 38 39 41 46 46 46 42
74 67 64 62 61 64 66 67 67 67 68 68 70 75 76 80 68 87 60 67 69 75 78 47 44 44 41 46 61 44 31 31 36 41 55 53 43 53 49 49 45 54 44 46 57 58 49
69 67 65 63 61 62 62 63 65 66 66 68 69 72 76 77 90 81 64 74 70 82 37 24 30 33 37 43 35 37 33 33 38 47 53 52 65 64 57 54 48 56 56 56 56 60 62
72 69 66 63 63 61 60 65 66 66 66 68 70 73 74 82 88 78 80 78 79 62 44 34 29 36 29 33 41 34 36 32 32 55 58 43 54 57 54 56 54 54 54 56 58 58 73
65 62 61 64 61 62 67 64 67 67 66 67 72 73 77 82 80 82 82 76 67 54 31 36 50 42 35 69 59 52 42 43 56 58 62 64 61 55 56 57 60 56 64 72 77 77 59
61 62 62 54 61 65 66 66 67 67 69 72 74 75 82 80 87 87 86 72 49 33 38 47 49 44 37 74 65 72 82 42 52 48 49 56 65 62 59 51 59 67 65 63 64 73 63
58 66 60 63 64 62 66 66 66 68 70 73 77 88 85 82 86 83 87 85 40 65 59 58 49 50 64 59 64 73 76 63 46 51 54 59 66 60 60 57 55 75 79 63 82 73 73
61 63 60 57 54 65 65 66 67 67 71 76 94 91 80 84 88 88 91 67 54 48 47 49 60 60 75 59 50 67 82 62 46 49 47 56 76 62 64 57 59 64 66 92 89 90 87
58 64 55 57 58 62 65 66 66 67 70 76 95 89 66 88 88 89 90 74 58 46 52 59 57 63 55 60 59 70 77 79 81 62 52 55 57 72 73 71 72 77 81 85 92 94 82
54 56 58 55 58 67 66 66 66 69 73 82 93 90 71 89 94 96 90 76 66 56 51 56 55 59 62 60 84 82 90 84 91 90 67 71 64 67 62 56 61 66 67 65 89 89 94
54 58 54 52 60 68 67 67 66 67 73 96 95 88 76 86 92 90 76 70 59 63 62 60 58 48 47 69 88 60 81 74 95 97 76 66 68 53 84 73 73 75 93 90 84 87 86
58 56 55 56 61 70 66 60 59 67 78 94 97 96 80 90 90 89 92 75 70 57 67 65 60 60 61 67 56 74 79 86 96 87 76 67 72 52 41 60 70 78 65 55 73 79 58
56 55 57 63 69 65 60 59 59 68 74 93 97 94 83 96 83 94 94 93 81 81 65 61 69 64 58 70 75 80 89 100 96 86 76 66 68 72 66 64 66 63 60 59 65 57 64
59 59 65 69 64 61 61 64 68 71 73 96 98 84 92 83 93 100 92 89 78 86 95 75 91 68 63 78 68 88 95 90 86 81 79 77 81 80 64 60 57 58 51 48 49 53 52
62 60 60 64 64 66 66 69 69 75 82 98 96 88 95 78 82 88 86 85 89 97 73 62 83 94 77 72 77 76 77 87 82 80 80 80 84 85 74 64 60 54 55 50 49 56 65
61 60 64 66 63 66 64 66 70 76 80 91 91 88 95 82 78 71 71 73 75 95 98 90 95 97 81 82 82 89 84 79 75 71 72 81 77 85 77 73 52 44 40 63 75 68 64
62 64 75 64 63 64 68 72 79 77 77 95 89 95 92 89 78 66 63 72 75 86 98 100 97 96 93 95 86 67 66 58 54 66 77 72 78 85 84 73 50 50 75 67 80 74 93
67 71 71 67 66 70 72 75 78 77 75 95 88 89 99 95 69 73 82 71 76 86 78 82 68 78 99 87 77 65 68 62 55 66 81 77 75 76 82 74 68 44 72 67 77 90 95
73 75 73 69 67 72 72 73 75 78 79 93 98 92 99 98 71 79 77 78 76 80 82 75 78 92 80 83 81 81 69 66 62 60 74 85 80 78 76 75 62 91 83 74 89 99 99
77 69 69 68 71 70 72 74 78 79 80 94 96 94 99 98 82 78 76 78 75 78 88 74 80 79 91 87 83 88 89 80 85 75 76 70 81 81 70 82 79 93 72 91 98 100 100
71 70 67 68 70 73 75 80 82 80 82 87 96 93 94 98 82 77 75 68 69 72 83 86 90 96 100 90 88 89 79 88 87 86 74 94 97 90 95 94 96 95 96 97 99 100 100

GFSGBSN_sfc_rhum_090.txt.gz
RH
71 73 73 72 73 68 66 66 69 73 75 75 73 72 72 70 68 70 70 72 68 67 71 73 73 71 51 22 10 12 39 36 25 32 27 22 20 19 20 15 16 24 17 15 17 16 16
71 71 71 72 69 66 64 69 68 67 68 67 67 69 70 70 71 70 69 73 74 72 74 75 76 67 51 25 9 17 21 18 14 26 28 26 22 16 17 17 17 15 18 16 17 17 18
68 69 69 70 68 67 67 68 66 66 68 66 67 68 69 69 70 70 70 72 76 76 74 78 77 56 58 25 19 17 18 19 16 15 24 25 27 29 21 25 20 23 26 21 19 18 20
69 68 68 68 69 69 67 66 66 66 67 68 67 68 70 71 72 73 74 79 79 75 76 76 77 55 43 28 23 29 28 30 25 18 18 17 24 28 25 16 19 22 20 24 14 17 18
71 68 67 69 70 68 67 72 70 69 69 68 68 68 70 73 74 79 82 80 74 72 75 74 58 58 34 33 34 30 30 33 29 29 24 15 22 26 20 23 21 19 20 16 16 21 20
70 68 74 71 67 63 66 77 74 70 68 68 68 68 71 73 75 81 80 72 65 68 47 44 44 54 33 24 17 27 17 31 31 33 32 22 22 27 27 21 21 16 16 18 20 14 21
72 75 69 68 65 64 64 71 71 68 67 67 68 71 72 73 74 78 48 28 25 31 30 31 24 30 24 16 16 17 15 24 26 29 29 23 27 29 22 26 21 17 20 18 18 18 20
73 70 68 67 70 70 69 70 67 64 65 67 69 72 73 75 74 71 37 43 54 54 66 37 35 35 32 30 44 27 19 29 26 33 29 32 31 18 21 23 26 25 21 18 15 18 24
71 70 67 66 65 65 64 64 64 67 66 67 69 73 75 76 70 52 44 52 46 51 72 34 32 34 33 39 40 31 27 21 27 28 35 33 25 21 25 34 38 31 29 26 24 23 25
74 70 67 64 64 66 66 65 63 63 65 66 68 71 75 78 54 48 37 40 44 59 49 19 26 34 23 34 41 17 26 27 20 22 28 39 29 36 34 34 29 32 22 28 29 36 33
76 69 67 64 64 64 63 63 63 63 64 66 69 71 73 74 51 38 41 45 47 69 25 17 21 27 18 20 18 19 24 30 35 21 29 37 40 36 38 32 28 30 37 37 39 39 35
75 71 68 66 66 63 61 66 64 64 64 66 69 70 70 52 48 42 46 52 59 50 19 17 17 26 21 12 21 22 28 27 25 27 25 26 35 36 31 29 36 34 46 43 37 35 44
77 69 65 67 65 65 66 67 66 65 66 69 70 71 56 48 46 52 55 47 42 28 12 19 33 28 20 16 28 40 40 38 39 43 41 29 35 40 40 50 42 39 41 52 56 57 36
67 64 66 61 65 67 66 66 66 66 68 70 71 71 65 48 52 62 53 41 34 13 20 31 33 25 22 36 33 46 48 42 33 31 25 44 48 42 43 37 44 42 38 39 41 38 29
64 67 62 63 65 65 67 66 66 66 70 71 71 50 51 61 65 58 47 55 21 34 44 45 33 27 27 40 34 31 36 49 37 30 31 30 32 33 40 33 35 51 63 39 57 44 52
61 68 64 61 60 68 67 66 65 65 68 77 49 46 57 67 69 57 65 48 33 30 32 35 39 31 52 38 40 38 38 84 79 51 36 40 43 45 48 40 47 46 38 69 60 70 58
67 69 61 60 58 68 67 67 64 67 70 72 58 50 63 63 65 53 78 41 42 34 38 43 39 42 40 46 34 39 45 47 100 77 57 61 45 62 54 54 50 60 58 62 60 62 70
61 62 62 63 67 68 67 66 68 68 72 59 61 76 60 63 66 66 55 45 50 37 37 43 44 42 48 48 60 60 69 52 68 89 85 48 47 61 54 52 38 42 46 52 63 81 60
59 59 59 58 63 69 70 68 66 68 69 56 65 46 53 68 79 61 48 45 45 46 43 44 45 38 36 44 65 53 55 53 67 99 96 50 46 59 65 53 51 50 68 60 62 58 66
59 62 57 56 62 70 69 64 62 68 75 54 85 90 48 57 80 78 68 51 48 38 46 46 50 46 49 49 41 59 55 70 90 100 98 81 48 37 38 50 51 69 51 44 53 66 43
62 61 61 62 65 71 64 60 60 68 74 54 85 81 68 80 59 69 76 76 63 59 49 45 56 56 62 68 48 54 69 98 100 93 68 53 55 46 40 38 36 36 37 38 44 40 46
62 60 60 66 72 66 62 64 68 71 72 65 96 54 73 70 66 95 69 72 70 64 84 61 79 57 58 77 50 70 82 84 99 81 84 50 61 52 42 39 38 40 32 30 30 32 37
62 61 67 68 65 63 64 67 71 73 67 73 66 63 68 57 50 65 60 68 76 96 60 64 98 92 69 53 49 54 56 68 74 92 86 64 57 46 55 35 37 40 38 35 34 34 41
64 66 62 63 68 69 69 70 69 76 70 51 52 58 78 61 43 45 49 51 68 87 99 78 86 95 81 74 64 64 72 70 65 64 63 59 53 59 58 51 42 47 38 45 45 55 70
68 63 63 68 63 65 67 67 71 76 76 65 57 70 71 77 48 43 49 53 55 75 100 100 89 92 92 84 97 67 60 53 52 58 55 54 54 61 64 47 34 49 55 54 62 78 87
64 64 66 71 66 67 69 73 76 73 78 86 74 67 89 82 44 50 56 52 55 72 61 79 59 82 98 93 63 54 57 47 45 61 56 61 55 60 58 52 44 60 50 50 54 99 84
66 68 72 72 69 70 72 74 75 75 75 90 95 90 98 94 48 56 55 66 54 57 61 54 69 72 57 63 62 62 53 49 49 45 54 62 70 65 60 64 49 73 65 49 91 100 97
72 76 75 78 72 72 73 73 74 75 80 87 94 90 95 97 60 57 54 59 49 52 71 60 66 66 70 73 67 60 65 61 62 66 68 65 76 72 64 69 65 84 59 84 99 100 100
75 76 73 74 75 73 72 74 75 78 80 80 95 84 93 99 69 66 58 52 52 51 64 66 74 79 89 74 71 80 71 73 68 77 64 89 82 84 94 94 94 89 89 93 93 98 99